Time,TemperatureF,DewpointF,PressureIn,WindDirection,WindDirectionDegrees,WindSpeedMPH,WindSpeedGustMPH,Humidity,HourlyPrecipIn,Conditions,Clouds,dailyrainin,SoftwareType,DateUTC
2013-02-20 00:00:00,31.9,15.3,30.09,WSW,248,13.8,13.8,50,0.00,CLR,,0.11,WeatherDisplay:10.37,2013-02-20 05:00:00,
2013-02-20 00:05:00,31.7,16.1,30.10,WSW,257,10.4,10.4,52,0.00,RA,,0.00,WeatherDisplay:10.37,2013-02-20 05:05:00,
2013-02-20 00:10:00,31.3,16.6,30.10,WSW,248,9.2,9.2,54,0.00,CLR,,0.00,WeatherDisplay:10.37,2013-02-20 05:10:00,
2013-02-20 00:11:00,31.3,16.1,30.10,WNW,282,17.3,17.3,53,0.00,CLR,,0.00,WeatherDisplay:10.37,2013-02-20 05:11:00,
2013-02-20 00:15:00,31.2,16.5,30.10,WSW,254,11.5,11.5,54,0.00,CLR,,0.00,WeatherDisplay:10.37,2013-02-20 05:15:00,
2013-02-20 00:16:00,31.1,16.4,30.10,WNW,290,11.5,11.5,54,0.00,CLR,,0.00,WeatherDisplay:10.37,2013-02-20 05:16:00,
2013-02-20 00:20:00,31.2,16.0,30.10,WSW,253,11.5,11.5,53,0.00,CLR,,0.00,WeatherDisplay:10.37,2013-02-20 05:20:00,
2013-02-20 00:21:00,31.2,16.0,30.10,WSW,238,11.5,11.5,53,0.00,CLR,,0.00,WeatherDisplay:10.37,2013-02-20 05:21:00,
2013-02-20 00:25:00,31.1,16.4,30.11,WNW,293,10.4,10.4,54,0.00,CLR,,0.00,WeatherDisplay:10.37,2013-02-20 05:25:00,
2013-02-20 00:26:00,31.1,16.4,30.11,WSW,245,8.1,8.1,54,0.00,CLR,,0.00,WeatherDisplay:10.37,2013-02-20 05:26:00,
2013-02-20 00:31:00,30.9,15.8,30.11,SSW,212,11.5,11.5,53,0.00,CLR,,0.00,WeatherDisplay:10.37,2013-02-20 05:31:00,
2013-02-20 00:32:00,30.9,15.8,30.11,WSW,255,9.2,9.2,53,0.00,CLR,,0.00,WeatherDisplay:10.37,2013-02-20 05:32:00,
2013-02-20 00:36:00,30.9,15.3,30.11,WNW,286,16.0,16.0,52,0.00,CLR,,0.00,WeatherDisplay:10.37,2013-02-20 05:36:00,
2013-02-20 00:37:00,30.8,15.2,30.11,WSW,238,11.5,11.5,52,0.00,CLR,,0.00,WeatherDisplay:10.37,2013-02-20 05:37:00,
2013-02-20 00:41:00,30.9,14.9,30.11,WNW,295,11.5,11.5,51,0.00,CLR,,0.00,WeatherDisplay:10.37,2013-02-20 05:41:00,
2013-02-20 00:42:00,30.9,15.3,30.11,WSW,249,8.1,8.1,52,0.00,CLR,,0.00,WeatherDisplay:10.37,2013-02-20 05:42:00,
2013-02-20 00:47:00,30.8,15.2,30.11,WSW,247,7.0,7.0,52,0.00,CLR,,0.00,WeatherDisplay:10.37,2013-02-20 05:47:00,
2013-02-20 00:48:00,30.7,15.6,30.11,WSW,257,8.1,8.1,53,0.00,CLR,,0.00,WeatherDisplay:10.37,2013-02-20 05:48:00,
2013-02-20 00:52:00,30.6,15.5,30.11,WSW,253,4.6,4.6,53,0.00,CLR,,0.00,WeatherDisplay:10.37,2013-02-20 05:52:00,
2013-02-20 00:53:00,30.5,15.8,30.11,WSW,255,4.6,4.6,54,0.00,CLR,,0.00,WeatherDisplay:10.37,2013-02-20 05:53:00,
2013-02-20 00:57:00,30.4,16.1,30.11,WSW,245,4.6,4.6,55,0.00,CLR,,0.00,WeatherDisplay:10.37,2013-02-20 05:57:00,
2013-02-20 00:58:00,30.4,16.1,30.12,WSW,254,4.6,4.6,55,0.00,CLR,,0.00,WeatherDisplay:10.37,2013-02-20 05:58:00,
2013-02-20 00:59:00,30.3,16.5,30.12,WSW,250,5.8,5.8,56,0.00,CLR,,0.00,WeatherDisplay:10.37,2013-02-20 05:59:00,
2013-02-20 01:02:00,30.0,16.6,30.12,WSW,243,5.8,5.8,57,0.00,CLR,,0.00,WeatherDisplay:10.37,2013-02-20 06:02:00,
2013-02-20 01:03:00,30.0,17.0,30.12,WSW,247,4.6,4.6,58,0.00,CLR,,0.00,WeatherDisplay:10.37,2013-02-20 06:03:00,
2013-02-20 01:04:00,30.0,17.0,30.12,WSW,243,6.0,6.0,58,0.00,CLR,,0.00,WeatherDisplay:10.37,2013-02-20 06:04:00,
2013-02-20 01:08:00,29.7,17.1,30.12,WNW,283,6.0,6.0,59,0.00,CLR,,0.00,WeatherDisplay:10.37,2013-02-20 06:08:00,
2013-02-20 01:10:00,29.5,17.3,30.12,WSW,251,3.5,3.5,60,0.00,CLR,,0.00,WeatherDisplay:10.37,2013-02-20 06:10:00,
2013-02-20 01:13:00,29.3,17.1,30.12,West,264,5.8,5.8,60,0.00,CLR,,0.00,WeatherDisplay:10.37,2013-02-20 06:13:00,
2013-02-20 01:14:00,29.3,17.1,30.12,WSW,253,4.6,4.6,60,0.00,CLR,,0.00,WeatherDisplay:10.37,2013-02-20 06:14:00,
2013-02-20 01:15:00,29.2,17.0,30.12,SW,235,3.5,3.5,60,0.00,CLR,,0.00,WeatherDisplay:10.37,2013-02-20 06:15:00,
2013-02-20 01:18:00,29.1,17.3,30.12,WSW,247,5.8,5.8,61,0.00,CLR,,0.00,WeatherDisplay:10.37,2013-02-20 06:18:00,
2013-02-20 01:19:00,29.1,17.3,30.12,WSW,253,5.8,5.8,61,0.00,CLR,,0.00,WeatherDisplay:10.37,2013-02-20 06:19:00,
2013-02-20 01:20:00,29.1,16.9,30.12,WSW,250,8.1,8.1,60,0.00,CLR,,0.00,WeatherDisplay:10.37,2013-02-20 06:20:00,
2013-02-20 01:23:00,29.1,16.9,30.12,WSW,251,5.8,5.8,60,0.00,CLR,,0.00,WeatherDisplay:10.37,2013-02-20 06:23:00,
2013-02-20 01:24:00,29.1,16.9,30.12,WSW,248,6.9,6.9,60,0.00,CLR,,0.00,WeatherDisplay:10.37,2013-02-20 06:24:00,
2013-02-20 01:25:00,29.1,16.9,30.12,West,281,6.0,6.0,60,0.00,CLR,,0.00,WeatherDisplay:10.37,2013-02-20 06:25:00,
2013-02-20 01:29:00,29.1,16.9,30.12,West,271,3.5,3.5,60,0.00,CLR,,0.00,WeatherDisplay:10.37,2013-02-20 06:29:00,
2013-02-20 01:30:00,29.1,16.9,30.12,WSW,247,9.2,9.2,60,0.00,CLR,,0.00,WeatherDisplay:10.37,2013-02-20 06:30:00,
2013-02-20 01:34:00,29.3,16.7,30.12,WSW,258,4.6,4.6,59,0.00,CLR,,0.00,WeatherDisplay:10.37,2013-02-20 06:34:00,
2013-02-20 01:35:00,29.3,17.1,30.12,WSW,250,3.5,3.5,60,0.00,CLR,,0.00,WeatherDisplay:10.37,2013-02-20 06:35:00,
2013-02-20 01:36:00,29.3,17.1,30.12,SW,235,3.5,3.5,60,0.00,CLR,,0.00,WeatherDisplay:10.37,2013-02-20 06:36:00,
2013-02-20 01:39:00,29.2,17.0,30.12,WSW,245,5.0,5.0,60,0.00,CLR,,0.00,WeatherDisplay:10.37,2013-02-20 06:39:00,
2013-02-20 01:40:00,29.1,16.9,30.12,WSW,255,4.6,4.6,60,0.00,CLR,,0.00,WeatherDisplay:10.37,2013-02-20 06:40:00,
2013-02-20 01:41:00,29.0,16.8,30.12,WSW,240,3.5,3.5,60,0.00,CLR,,0.00,WeatherDisplay:10.37,2013-02-20 06:41:00,
2013-02-20 01:44:00,28.9,16.7,30.11,WSW,240,4.0,4.0,60,0.00,CLR,,0.00,WeatherDisplay:10.37,2013-02-20 06:44:00,
2013-02-20 01:45:00,28.8,17.0,30.11,West,271,6.9,6.9,61,0.00,CLR,,0.00,WeatherDisplay:10.37,2013-02-20 06:45:00,
2013-02-20 01:46:00,28.8,17.0,30.11,WSW,254,6.9,6.9,61,0.00,CLR,,0.00,WeatherDisplay:10.37,2013-02-20 06:46:00,
2013-02-20 01:49:00,28.6,16.5,30.11,SW,236,8.1,8.1,60,0.00,CLR,,0.00,WeatherDisplay:10.37,2013-02-20 06:49:00,
2013-02-20 01:50:00,28.6,16.5,30.11,WSW,238,5.8,5.8,60,0.00,CLR,,0.00,WeatherDisplay:10.37,2013-02-20 06:50:00,
2013-02-20 01:51:00,28.6,16.5,30.11,WSW,243,9.2,9.2,60,0.00,CLR,,0.00,WeatherDisplay:10.37,2013-02-20 06:51:00,
2013-02-20 01:54:00,28.8,15.9,30.11,North,359,19.6,19.6,58,0.00,CLR,,0.00,WeatherDisplay:10.37,2013-02-20 06:54:00,
2013-02-20 01:55:00,28.9,16.0,30.11,West,274,12.7,12.7,58,0.00,CLR,,0.00,WeatherDisplay:10.37,2013-02-20 06:55:00,
2013-02-20 01:56:00,29.0,16.1,30.11,West,281,11.5,11.5,58,0.00,CLR,,0.00,WeatherDisplay:10.37,2013-02-20 06:56:00,
2013-02-20 01:57:00,29.1,16.1,30.11,West,264,11.5,11.5,58,0.00,CLR,,0.00,WeatherDisplay:10.37,2013-02-20 06:57:00,
2013-02-20 01:59:00,29.2,16.2,30.11,West,260,8.1,8.1,58,0.00,CLR,,0.00,WeatherDisplay:10.37,2013-02-20 06:59:00,
2013-02-20 02:01:00,29.2,16.2,30.11,West,273,3.5,3.5,58,0.00,CLR,,0.00,WeatherDisplay:10.37,2013-02-20 07:01:00,
2013-02-20 02:02:00,29.2,16.2,30.11,SSW,208,5.0,5.0,58,0.00,CLR,,0.00,WeatherDisplay:10.37,2013-02-20 07:02:00,
2013-02-20 02:04:00,29.2,16.2,30.11,SW,235,13.0,13.0,58,0.00,CLR,,0.00,WeatherDisplay:10.37,2013-02-20 07:04:00,
2013-02-20 02:06:00,29.2,15.8,30.11,SW,220,12.7,12.7,57,0.00,CLR,,0.00,WeatherDisplay:10.37,2013-02-20 07:06:00,
2013-02-20 02:08:00,29.2,16.2,30.11,WSW,245,3.5,3.5,58,0.00,CLR,,0.00,WeatherDisplay:10.37,2013-02-20 07:08:00,
2013-02-20 02:10:00,29.2,16.6,30.11,WSW,252,5.0,14.0,59,0.00,CLR,,0.00,WeatherDisplay:10.37,2013-02-20 07:10:00,
2013-02-20 02:11:00,29.1,16.1,30.11,SW,231,8.1,8.1,58,0.00,CLR,,0.00,WeatherDisplay:10.37,2013-02-20 07:11:00,
2013-02-20 02:13:00,29.0,16.1,30.11,West,274,4.6,4.6,58,0.00,CLR,,0.00,WeatherDisplay:10.37,2013-02-20 07:13:00,
2013-02-20 02:15:00,29.0,16.4,30.11,WSW,237,6.9,6.9,59,0.00,CLR,,0.00,WeatherDisplay:10.37,2013-02-20 07:15:00,
2013-02-20 02:16:00,28.9,16.4,30.11,West,262,7.0,7.0,59,0.00,CLR,,0.00,WeatherDisplay:10.37,2013-02-20 07:16:00,
2013-02-20 02:17:00,28.9,16.4,30.11,West,275,9.2,9.2,59,0.00,CLR,,0.00,WeatherDisplay:10.37,2013-02-20 07:17:00,
2013-02-20 02:19:00,28.8,16.3,30.11,WSW,242,6.9,6.9,59,0.00,CLR,,0.00,WeatherDisplay:10.37,2013-02-20 07:19:00,
2013-02-20 02:20:00,28.8,16.3,30.11,WSW,249,5.8,5.8,59,0.00,CLR,,0.00,WeatherDisplay:10.37,2013-02-20 07:20:00,
2013-02-20 02:21:00,28.8,16.6,30.11,West,268,5.8,5.8,60,0.00,CLR,,0.00,WeatherDisplay:10.37,2013-02-20 07:21:00,
2013-02-20 02:22:00,28.7,16.6,30.11,West,266,8.0,8.0,60,0.00,CLR,,0.00,WeatherDisplay:10.37,2013-02-20 07:22:00,
2013-02-20 02:24:00,28.6,16.1,30.11,West,274,8.1,8.1,59,0.00,CLR,,0.00,WeatherDisplay:10.37,2013-02-20 07:24:00,
2013-02-20 02:25:00,28.5,16.0,30.11,West,273,9.2,9.2,59,0.00,CLR,,0.00,WeatherDisplay:10.37,2013-02-20 07:25:00,
2013-02-20 02:27:00,28.6,15.7,30.12,West,278,13.0,13.0,58,0.00,CLR,,0.00,WeatherDisplay:10.37,2013-02-20 07:27:00,
2013-02-20 02:29:00,28.7,15.8,30.12,WSW,252,6.9,6.9,58,0.00,CLR,,0.00,WeatherDisplay:10.37,2013-02-20 07:29:00,
2013-02-20 02:30:00,28.7,15.8,30.12,WSW,257,9.2,9.2,58,0.00,CLR,,0.00,WeatherDisplay:10.37,2013-02-20 07:30:00,
2013-02-20 02:32:00,28.7,15.8,30.12,West,267,8.1,8.1,58,0.00,CLR,,0.00,WeatherDisplay:10.37,2013-02-20 07:32:00,
2013-02-20 02:34:00,28.7,15.8,30.12,WSW,252,4.6,4.6,58,0.00,CLR,,0.00,WeatherDisplay:10.37,2013-02-20 07:34:00,
2013-02-20 02:35:00,28.7,15.8,30.12,WSW,240,4.6,4.6,58,0.00,CLR,,0.00,WeatherDisplay:10.37,2013-02-20 07:35:00,
2013-02-20 02:37:00,28.6,15.7,30.12,NW,310,8.1,8.1,58,0.00,CLR,,0.00,WeatherDisplay:10.37,2013-02-20 07:37:00,
2013-02-20 02:38:00,28.6,15.7,30.12,WSW,253,6.9,6.9,58,0.00,CLR,,0.00,WeatherDisplay:10.37,2013-02-20 07:38:00,
2013-02-20 02:40:00,28.5,15.6,30.12,West,259,2.0,10.0,58,0.00,CLR,,0.00,WeatherDisplay:10.37,2013-02-20 07:40:00,
2013-02-20 02:42:00,28.5,15.6,30.12,West,264,5.8,5.8,58,0.00,CLR,,0.00,WeatherDisplay:10.37,2013-02-20 07:42:00,
2013-02-20 02:43:00,28.5,16.0,30.12,SW,224,11.0,11.0,59,0.00,CLR,,0.00,WeatherDisplay:10.37,2013-02-20 07:43:00,
2013-02-20 02:45:00,28.5,16.0,30.12,West,263,11.5,11.5,59,0.00,CLR,,0.00,WeatherDisplay:10.37,2013-02-20 07:45:00,
2013-02-20 02:47:00,28.5,16.0,30.12,WSW,243,4.6,4.6,59,0.00,CLR,,0.00,WeatherDisplay:10.37,2013-02-20 07:47:00,
2013-02-20 02:48:00,28.4,15.9,30.12,WNW,300,8.1,8.1,59,0.00,CLR,,0.00,WeatherDisplay:10.37,2013-02-20 07:48:00,
2013-02-20 02:49:00,28.4,16.3,30.12,West,266,4.6,4.6,60,0.00,CLR,,0.00,WeatherDisplay:10.37,2013-02-20 07:49:00,
2013-02-20 02:51:00,28.3,16.2,30.12,West,268,5.8,5.8,60,0.00,CLR,,0.00,WeatherDisplay:10.37,2013-02-20 07:51:00,
2013-02-20 02:52:00,28.3,16.2,30.12,SW,231,8.1,8.1,60,0.00,CLR,,0.00,WeatherDisplay:10.37,2013-02-20 07:52:00,
2013-02-20 02:53:00,28.3,16.2,30.12,WSW,241,6.9,6.9,60,0.00,CLR,,0.00,WeatherDisplay:10.37,2013-02-20 07:53:00,
2013-02-20 02:55:00,28.2,16.1,30.12,WNW,293,8.1,8.1,60,0.00,CLR,,0.00,WeatherDisplay:10.37,2013-02-20 07:55:00,
2013-02-20 02:56:00,28.3,15.8,30.12,WNW,290,10.4,10.4,59,0.00,CLR,,0.00,WeatherDisplay:10.37,2013-02-20 07:56:00,
2013-02-20 02:57:00,28.3,16.2,30.12,SW,225,5.8,5.8,60,0.00,CLR,,0.00,WeatherDisplay:10.37,2013-02-20 07:57:00,
2013-02-20 02:58:00,28.2,16.1,30.13,WSW,253,4.6,4.6,60,0.00,CLR,,0.00,WeatherDisplay:10.37,2013-02-20 07:58:00,
2013-02-20 03:00:00,28.2,16.1,30.13,SW,231,10.0,10.0,60,0.00,CLR,,0.00,WeatherDisplay:10.37,2013-02-20 08:00:00,
2013-02-20 03:01:00,28.2,15.7,30.13,West,272,11.5,11.5,59,0.00,CLR,,0.00,WeatherDisplay:10.37,2013-02-20 08:01:00,
2013-02-20 03:05:00,28.3,15.8,30.13,WNW,292,11.5,11.5,59,0.00,CLR,,0.00,WeatherDisplay:10.37,2013-02-20 08:05:00,
2013-02-20 03:06:00,28.2,15.7,30.13,WSW,253,9.2,9.2,59,0.00,CLR,,0.00,WeatherDisplay:10.37,2013-02-20 08:06:00,
2013-02-20 03:10:00,28.2,15.7,30.14,WSW,237,11.5,11.5,59,0.00,CLR,,0.00,WeatherDisplay:10.37,2013-02-20 08:10:00,
2013-02-20 03:11:00,28.1,15.6,30.14,West,264,6.0,6.0,59,0.00,CLR,,0.00,WeatherDisplay:10.37,2013-02-20 08:11:00,
2013-02-20 03:15:00,28.1,15.6,30.13,West,274,12.7,12.7,59,0.00,CLR,,0.00,WeatherDisplay:10.37,2013-02-20 08:15:00,
2013-02-20 03:16:00,28.1,15.6,30.13,SW,235,12.7,12.7,59,0.00,CLR,,0.00,WeatherDisplay:10.37,2013-02-20 08:16:00,
2013-02-20 03:20:00,28.0,15.5,30.13,West,261,8.1,8.1,59,0.00,CLR,,0.00,WeatherDisplay:10.37,2013-02-20 08:20:00,
2013-02-20 03:21:00,28.0,15.5,30.13,SSW,210,6.9,6.9,59,0.00,CLR,,0.00,WeatherDisplay:10.37,2013-02-20 08:21:00,
2013-02-20 03:26:00,28.1,15.2,30.13,SW,234,11.5,11.5,58,0.00,CLR,,0.00,WeatherDisplay:10.37,2013-02-20 08:26:00,
2013-02-20 03:27:00,28.1,15.2,30.13,WSW,254,12.7,12.7,58,0.00,CLR,,0.00,WeatherDisplay:10.37,2013-02-20 08:27:00,
2013-02-20 03:31:00,28.1,15.2,30.13,SW,235,10.4,10.4,58,0.00,CLR,,0.00,WeatherDisplay:10.37,2013-02-20 08:31:00,
2013-02-20 03:32:00,28.1,15.2,30.13,WSW,241,11.5,11.5,58,0.00,CLR,,0.00,WeatherDisplay:10.37,2013-02-20 08:32:00,
2013-02-20 03:36:00,28.0,15.1,30.13,WSW,247,9.2,9.2,58,0.00,CLR,,0.00,WeatherDisplay:10.37,2013-02-20 08:36:00,
2013-02-20 03:37:00,28.0,15.1,30.13,WNW,296,9.2,9.2,58,0.00,CLR,,0.00,WeatherDisplay:10.37,2013-02-20 08:37:00,
2013-02-20 03:41:00,28.0,15.5,30.13,WSW,237,11.5,11.5,59,0.00,CLR,,0.00,WeatherDisplay:10.37,2013-02-20 08:41:00,
2013-02-20 03:42:00,28.0,15.1,30.13,SW,231,11.5,11.5,58,0.00,CLR,,0.00,WeatherDisplay:10.37,2013-02-20 08:42:00,
2013-02-20 03:46:00,28.0,15.5,30.13,WSW,251,8.1,8.1,59,0.00,CLR,,0.00,WeatherDisplay:10.37,2013-02-20 08:46:00,
2013-02-20 03:47:00,28.0,15.5,30.13,WSW,250,5.0,5.0,59,0.00,CLR,,0.00,WeatherDisplay:10.37,2013-02-20 08:47:00,
2013-02-20 03:51:00,27.8,15.3,30.13,West,269,9.2,9.2,59,0.00,CLR,,0.00,WeatherDisplay:10.37,2013-02-20 08:51:00,
2013-02-20 03:52:00,27.8,15.3,30.13,West,260,9.2,9.2,59,0.00,CLR,,0.00,WeatherDisplay:10.37,2013-02-20 08:52:00,
2013-02-20 03:56:00,27.5,15.4,30.13,WNW,293,4.6,4.6,60,0.00,CLR,,0.00,WeatherDisplay:10.37,2013-02-20 08:56:00,
2013-02-20 03:57:00,27.5,15.4,30.13,WNW,290,5.8,5.8,60,0.00,CLR,,0.00,WeatherDisplay:10.37,2013-02-20 08:57:00,
2013-02-20 03:58:00,27.4,15.7,30.13,West,278,3.5,3.5,61,0.00,CLR,,0.00,WeatherDisplay:10.37,2013-02-20 08:58:00,
2013-02-20 04:02:00,27.0,15.7,30.14,West,267,3.5,3.5,62,0.00,CLR,,0.00,WeatherDisplay:10.37,2013-02-20 09:02:00,
2013-02-20 04:03:00,27.0,15.7,30.13,WNW,286,3.5,3.5,62,0.00,CLR,,0.00,WeatherDisplay:10.37,2013-02-20 09:03:00,
2013-02-20 04:07:00,26.8,15.9,30.14,WSW,237,6.0,6.7,63,0.00,CLR,,0.00,WeatherDisplay:10.37,2013-02-20 09:07:00,
2013-02-20 04:08:00,26.7,15.8,30.13,WSW,240,11.5,11.5,63,0.00,CLR,,0.00,WeatherDisplay:10.37,2013-02-20 09:08:00,
2013-02-20 04:13:00,26.6,16.1,30.13,WSW,245,4.6,4.6,64,0.00,CLR,,0.00,WeatherDisplay:10.37,2013-02-20 09:13:00,
2013-02-20 04:14:00,26.6,16.1,30.14,WNW,298,5.8,5.8,64,0.00,CLR,,0.00,WeatherDisplay:10.37,2013-02-20 09:14:00,
2013-02-20 04:18:00,26.5,16.3,30.14,WSW,253,6.9,6.9,65,0.00,CLR,,0.00,WeatherDisplay:10.37,2013-02-20 09:18:00,
2013-02-20 04:19:00,26.5,16.3,30.14,SW,235,3.5,3.5,65,0.00,CLR,,0.00,WeatherDisplay:10.37,2013-02-20 09:19:00,
2013-02-20 04:23:00,26.4,16.2,30.13,WSW,244,3.5,3.5,65,0.00,CLR,,0.00,WeatherDisplay:10.37,2013-02-20 09:23:00,
2013-02-20 04:25:00,26.4,16.2,30.14,WNW,293,4.6,4.6,65,0.00,CLR,,0.00,WeatherDisplay:10.37,2013-02-20 09:25:00,
2013-02-20 04:28:00,26.3,16.1,30.14,SW,224,10.4,10.4,65,0.00,CLR,,0.00,WeatherDisplay:10.37,2013-02-20 09:28:00,
2013-02-20 04:30:00,26.3,16.1,30.14,SW,226,9.2,9.2,65,0.00,CLR,,0.00,WeatherDisplay:10.37,2013-02-20 09:30:00,
2013-02-20 04:33:00,26.4,16.2,30.14,WSW,240,8.1,8.1,65,0.00,CLR,,0.00,WeatherDisplay:10.37,2013-02-20 09:33:00,
2013-02-20 04:34:00,26.4,16.2,30.14,SW,234,6.9,6.9,65,0.00,CLR,,0.00,WeatherDisplay:10.37,2013-02-20 09:34:00,
2013-02-20 04:37:00,26.3,16.1,30.14,West,267,6.9,6.9,65,0.00,CLR,,0.00,WeatherDisplay:10.37,2013-02-20 09:37:00,
2013-02-20 04:38:00,26.3,16.1,30.15,West,262,5.8,5.8,65,0.00,CLR,,0.00,WeatherDisplay:10.37,2013-02-20 09:38:00,
2013-02-20 04:39:00,26.2,16.0,30.14,WSW,248,5.8,5.8,65,0.00,CLR,,0.00,WeatherDisplay:10.37,2013-02-20 09:39:00,
2013-02-20 04:42:00,26.2,16.4,30.15,WSW,245,5.8,5.8,66,0.00,CLR,,0.00,WeatherDisplay:10.37,2013-02-20 09:42:00,
2013-02-20 04:43:00,26.2,16.4,30.15,West,267,7.0,7.0,66,0.00,CLR,,0.00,WeatherDisplay:10.37,2013-02-20 09:43:00,
2013-02-20 04:44:00,26.1,16.3,30.15,WSW,245,6.9,6.9,66,0.00,CLR,,0.00,WeatherDisplay:10.37,2013-02-20 09:44:00,
2013-02-20 04:45:00,26.1,16.3,30.15,WSW,245,5.8,5.8,66,0.00,CLR,,0.00,WeatherDisplay:10.37,2013-02-20 09:45:00,
2013-02-20 04:47:00,26.1,16.3,30.15,SW,215,4.6,4.8,66,0.00,CLR,,0.00,WeatherDisplay:10.37,2013-02-20 09:47:00,
2013-02-20 04:49:00,26.2,16.0,30.15,SW,235,6.9,6.9,65,0.00,CLR,,0.00,WeatherDisplay:10.37,2013-02-20 09:49:00,
2013-02-20 04:50:00,26.2,16.0,30.15,SSW,211,6.9,6.9,65,0.00,CLR,,0.00,WeatherDisplay:10.37,2013-02-20 09:50:00,
2013-02-20 04:52:00,26.2,16.0,30.15,WSW,252,9.2,9.2,65,0.00,CLR,,0.00,WeatherDisplay:10.37,2013-02-20 09:52:00,
2013-02-20 04:54:00,26.3,16.1,30.15,West,269,8.1,8.1,65,0.00,CLR,,0.00,WeatherDisplay:10.37,2013-02-20 09:54:00,
2013-02-20 04:55:00,26.3,16.1,30.15,SW,229,8.1,8.1,65,0.00,CLR,,0.00,WeatherDisplay:10.37,2013-02-20 09:55:00,
2013-02-20 04:57:00,26.3,16.1,30.15,WSW,248,5.8,5.8,65,0.00,CLR,,0.00,WeatherDisplay:10.37,2013-02-20 09:57:00,
2013-02-20 04:59:00,26.3,16.1,30.15,SW,224,10.4,10.4,65,0.00,CLR,,0.00,WeatherDisplay:10.37,2013-02-20 09:59:00,
2013-02-20 05:00:00,26.3,16.1,30.15,WSW,258,8.1,8.1,65,0.00,CLR,,0.00,WeatherDisplay:10.37,2013-02-20 10:00:00,
2013-02-20 05:02:00,26.3,16.1,30.15,WSW,242,5.8,5.8,65,0.00,CLR,,0.00,WeatherDisplay:10.37,2013-02-20 10:02:00,
2013-02-20 05:05:00,26.3,16.1,30.15,WSW,258,8.1,8.1,65,0.00,CLR,,0.00,WeatherDisplay:10.37,2013-02-20 10:05:00,
2013-02-20 05:06:00,26.3,16.1,30.15,WSW,242,6.9,6.9,65,0.00,CLR,,0.00,WeatherDisplay:10.37,2013-02-20 10:06:00,
2013-02-20 05:08:00,26.3,16.1,30.15,WNW,295,4.6,4.6,65,0.00,CLR,,0.00,WeatherDisplay:10.37,2013-02-20 10:08:00,
2013-02-20 05:10:00,26.2,16.0,30.16,WSW,239,5.8,5.8,65,0.00,CLR,,0.00,WeatherDisplay:10.37,2013-02-20 10:10:00,
2013-02-20 05:11:00,26.2,16.0,30.15,WSW,240,5.8,5.8,65,0.00,CLR,,0.00,WeatherDisplay:10.37,2013-02-20 10:11:00,
2013-02-20 05:12:00,26.2,16.0,30.16,WSW,237,9.2,9.2,65,0.00,CLR,,0.00,WeatherDisplay:10.37,2013-02-20 10:12:00,
2013-02-20 05:13:00,26.2,16.0,30.16,WNW,286,6.0,6.0,65,0.00,CLR,,0.00,WeatherDisplay:10.37,2013-02-20 10:13:00,
2013-02-20 05:15:00,26.1,15.6,30.16,West,260,9.2,9.2,64,0.00,CLR,,0.00,WeatherDisplay:10.37,2013-02-20 10:15:00,
2013-02-20 05:16:00,26.1,15.6,30.16,WNW,291,8.1,8.1,64,0.00,CLR,,0.00,WeatherDisplay:10.37,2013-02-20 10:16:00,
2013-02-20 05:18:00,26.1,15.6,30.16,WSW,245,3.5,3.5,64,0.00,CLR,,0.00,WeatherDisplay:10.37,2013-02-20 10:18:00,
2013-02-20 05:19:00,26.1,15.9,30.16,WSW,248,4.6,4.6,65,0.00,CLR,,0.00,WeatherDisplay:10.37,2013-02-20 10:19:00,
2013-02-20 05:20:00,26.1,15.9,30.16,WSW,245,5.8,5.8,65,0.00,CLR,,0.00,WeatherDisplay:10.37,2013-02-20 10:20:00,
2013-02-20 05:21:00,26.1,15.9,30.16,SW,230,7.0,7.0,65,0.00,CLR,,0.00,WeatherDisplay:10.37,2013-02-20 10:21:00,
2013-02-20 05:23:00,26.1,15.6,30.16,SW,235,8.1,8.1,64,0.00,CLR,,0.00,WeatherDisplay:10.37,2013-02-20 10:23:00,
2013-02-20 05:24:00,26.1,15.6,30.16,WSW,243,11.5,11.5,64,0.00,CLR,,0.00,WeatherDisplay:10.37,2013-02-20 10:24:00,
2013-02-20 05:26:00,26.2,15.7,30.16,West,263,7.0,7.0,64,0.00,CLR,,0.00,WeatherDisplay:10.37,2013-02-20 10:26:00,
2013-02-20 05:28:00,26.1,15.6,30.16,SW,235,8.1,8.1,64,0.00,CLR,,0.00,WeatherDisplay:10.37,2013-02-20 10:28:00,
2013-02-20 05:29:00,26.1,15.6,30.16,WNW,286,5.8,5.8,64,0.00,CLR,,0.00,WeatherDisplay:10.37,2013-02-20 10:29:00,
2013-02-20 05:31:00,26.1,15.6,30.16,WSW,256,6.9,6.9,64,0.00,CLR,,0.00,WeatherDisplay:10.37,2013-02-20 10:31:00,
2013-02-20 05:32:00,26.1,15.6,30.16,WSW,250,4.6,4.6,64,0.00,CLR,,0.00,WeatherDisplay:10.37,2013-02-20 10:32:00,
2013-02-20 05:33:00,26.1,15.6,30.17,WSW,241,6.9,6.9,64,0.00,CLR,,0.00,WeatherDisplay:10.37,2013-02-20 10:33:00,
2013-02-20 05:34:00,26.0,15.5,30.16,West,278,6.9,6.9,64,0.00,CLR,,0.00,WeatherDisplay:10.37,2013-02-20 10:34:00,
2013-02-20 05:36:00,25.9,15.4,30.17,WSW,241,6.0,6.0,64,0.00,CLR,,0.00,WeatherDisplay:10.37,2013-02-20 10:36:00,
2013-02-20 05:37:00,25.9,15.4,30.17,WSW,250,6.9,6.9,64,0.00,CLR,,0.00,WeatherDisplay:10.37,2013-02-20 10:37:00,
2013-02-20 05:38:00,25.9,15.7,30.17,West,264,3.5,3.5,65,0.00,CLR,,0.00,WeatherDisplay:10.37,2013-02-20 10:38:00,
2013-02-20 05:40:00,25.8,15.6,30.17,WNW,288,4.0,4.0,65,0.00,CLR,,0.00,WeatherDisplay:10.37,2013-02-20 10:40:00,
2013-02-20 05:42:00,25.9,15.4,30.17,WSW,251,6.9,6.9,64,0.00,CLR,,0.00,WeatherDisplay:10.37,2013-02-20 10:42:00,
2013-02-20 05:43:00,25.8,15.3,30.17,WNW,302,6.9,6.9,64,0.00,CLR,,0.00,WeatherDisplay:10.37,2013-02-20 10:43:00,
2013-02-20 05:44:00,25.8,15.6,30.17,WSW,250,3.5,3.5,65,0.00,CLR,,0.00,WeatherDisplay:10.37,2013-02-20 10:44:00,
2013-02-20 05:45:00,25.8,15.6,30.17,WSW,240,3.5,3.5,65,0.00,CLR,,0.00,WeatherDisplay:10.37,2013-02-20 10:45:00,
2013-02-20 05:48:00,25.6,15.8,30.17,WSW,240,2.3,2.3,66,0.00,CLR,,0.00,WeatherDisplay:10.37,2013-02-20 10:48:00,
2013-02-20 05:49:00,25.5,15.7,30.17,West,278,5.0,5.0,66,0.00,CLR,,0.00,WeatherDisplay:10.37,2013-02-20 10:49:00,
2013-02-20 05:50:00,25.5,15.7,30.17,West,272,1.0,7.0,66,0.00,CLR,,0.00,WeatherDisplay:10.37,2013-02-20 10:50:00,
2013-02-20 05:53:00,25.5,15.4,30.16,WSW,247,6.9,6.9,65,0.00,CLR,,0.00,WeatherDisplay:10.37,2013-02-20 10:53:00,
2013-02-20 05:55:00,25.5,15.4,30.16,West,270,1.0,7.0,65,0.00,CLR,,0.00,WeatherDisplay:10.37,2013-02-20 10:55:00,
2013-02-20 05:58:00,25.4,15.6,30.16,West,262,4.6,4.6,66,0.00,CLR,,0.00,WeatherDisplay:10.37,2013-02-20 10:58:00,
2013-02-20 06:00:00,25.4,15.6,30.16,West,261,2.0,5.0,66,0.00,CLR,,0.00,WeatherDisplay:10.37,2013-02-20 11:00:00,
2013-02-20 06:03:00,25.3,15.5,30.17,WSW,250,3.5,3.5,66,0.00,CLR,,0.00,WeatherDisplay:10.37,2013-02-20 11:03:00,
2013-02-20 06:05:00,25.3,15.5,30.17,WSW,255,2.0,4.0,66,0.00,CLR,,0.00,WeatherDisplay:10.37,2013-02-20 11:05:00,
2013-02-20 06:08:00,25.1,15.7,30.17,WSW,255,2.3,2.3,67,0.00,CLR,,0.00,WeatherDisplay:10.37,2013-02-20 11:08:00,
2013-02-20 06:09:00,25.1,15.7,30.17,West,272,6.9,6.9,67,0.00,CLR,,0.00,WeatherDisplay:10.37,2013-02-20 11:09:00,
2013-02-20 06:10:00,25.1,15.7,30.17,WSW,252,2.0,7.0,67,0.00,CLR,,0.00,WeatherDisplay:10.37,2013-02-20 11:10:00,
2013-02-20 06:13:00,25.0,15.6,30.17,WSW,252,3.5,3.5,67,0.00,CLR,,0.00,WeatherDisplay:10.37,2013-02-20 11:13:00,
2013-02-20 06:14:00,25.0,15.6,30.17,WSW,252,5.8,5.8,67,0.00,CLR,,0.00,WeatherDisplay:10.37,2013-02-20 11:14:00,
2013-02-20 06:15:00,25.0,15.6,30.17,WSW,251,1.0,6.0,67,0.00,CLR,,0.00,WeatherDisplay:10.37,2013-02-20 11:15:00,
2013-02-20 06:18:00,24.9,15.5,30.17,WSW,253,8.1,8.1,67,0.00,CLR,,0.00,WeatherDisplay:10.37,2013-02-20 11:18:00,
2013-02-20 06:19:00,25.0,15.6,30.17,NNW,343,5.8,5.8,67,0.00,CLR,,0.00,WeatherDisplay:10.37,2013-02-20 11:19:00,
2013-02-20 06:20:00,25.0,15.6,30.17,WNW,288,5.8,5.8,67,0.00,CLR,,0.00,WeatherDisplay:10.37,2013-02-20 11:20:00,
2013-02-20 06:21:00,25.0,15.6,30.17,West,264,3.5,3.5,67,0.00,CLR,,0.00,WeatherDisplay:10.37,2013-02-20 11:21:00,
2013-02-20 06:23:00,25.0,15.6,30.17,WSW,257,5.8,5.8,67,0.00,CLR,,0.00,WeatherDisplay:10.37,2013-02-20 11:23:00,
2013-02-20 06:25:00,25.0,15.9,30.17,WSW,243,9.2,9.2,68,0.00,CLR,,0.00,WeatherDisplay:10.37,2013-02-20 11:25:00,
2013-02-20 06:26:00,25.0,15.9,30.17,South,186,9.2,9.2,68,0.00,CLR,,0.00,WeatherDisplay:10.37,2013-02-20 11:26:00,
2013-02-20 06:29:00,24.9,15.5,30.18,WNW,301,3.5,3.5,67,0.00,CLR,,0.00,WeatherDisplay:10.37,2013-02-20 11:29:00,
2013-02-20 06:30:00,25.0,15.6,30.18,WSW,243,5.0,5.0,67,0.00,CLR,,0.00,WeatherDisplay:10.37,2013-02-20 11:30:00,
2013-02-20 06:31:00,24.9,15.5,30.18,SW,235,6.9,6.9,67,0.00,CLR,,0.00,WeatherDisplay:10.37,2013-02-20 11:31:00,
2013-02-20 06:35:00,24.9,15.5,30.18,WSW,256,2.0,7.0,67,0.00,CLR,,0.00,WeatherDisplay:10.37,2013-02-20 11:35:00,
2013-02-20 06:36:00,24.9,15.8,30.18,WSW,238,4.0,4.0,68,0.00,CLR,,0.00,WeatherDisplay:10.37,2013-02-20 11:36:00,
2013-02-20 06:40:00,24.8,15.7,30.18,WSW,253,1.0,4.0,68,0.00,CLR,,0.00,WeatherDisplay:10.37,2013-02-20 11:40:00,
2013-02-20 06:41:00,24.8,15.4,30.18,WSW,241,8.0,8.0,67,0.00,CLR,,0.00,WeatherDisplay:10.37,2013-02-20 11:41:00,
2013-02-20 06:42:00,24.8,15.4,30.17,WSW,248,8.1,8.1,67,0.00,CLR,,0.00,WeatherDisplay:10.37,2013-02-20 11:42:00,
2013-02-20 06:45:00,24.8,15.4,30.17,WSW,243,4.6,4.6,67,0.00,CLR,,0.00,WeatherDisplay:10.37,2013-02-20 11:45:00,
2013-02-20 06:47:00,24.8,15.7,30.17,WNW,284,1.1,1.1,68,0.00,CLR,,0.00,WeatherDisplay:10.37,2013-02-20 11:47:00,
2013-02-20 06:48:00,24.7,15.6,30.17,SW,236,3.0,3.0,68,0.00,CLR,,0.00,WeatherDisplay:10.37,2013-02-20 11:48:00,
2013-02-20 06:51:00,24.6,15.5,30.17,West,269,3.5,3.5,68,0.00,CLR,,0.00,WeatherDisplay:10.37,2013-02-20 11:51:00,
2013-02-20 06:52:00,24.6,15.5,30.17,WNW,283,2.3,2.3,68,0.00,CLR,,0.00,WeatherDisplay:10.37,2013-02-20 11:52:00,
2013-02-20 06:53:00,24.5,15.4,30.17,West,268,3.5,3.5,68,0.00,CLR,,0.00,WeatherDisplay:10.37,2013-02-20 11:53:00,
2013-02-20 06:56:00,24.4,15.7,30.17,West,271,2.3,2.3,69,0.00,CLR,,0.00,WeatherDisplay:10.37,2013-02-20 11:56:00,
2013-02-20 06:57:00,24.3,15.6,30.17,West,274,3.5,3.5,69,0.00,CLR,,0.00,WeatherDisplay:10.37,2013-02-20 11:57:00,
2013-02-20 06:58:00,24.3,15.6,30.17,WSW,250,3.5,3.5,69,0.00,CLR,,0.00,WeatherDisplay:10.37,2013-02-20 11:58:00,
2013-02-20 07:02:00,24.2,15.5,30.18,West,270,3.5,3.5,69,0.00,CLR,,0.00,WeatherDisplay:10.37,2013-02-20 12:02:00,
2013-02-20 07:03:00,24.2,15.5,30.17,West,264,3.5,3.5,69,0.00,CLR,,0.00,WeatherDisplay:10.37,2013-02-20 12:03:00,
2013-02-20 07:07:00,24.1,15.7,30.18,SW,235,2.3,2.3,70,0.00,CLR,,0.00,WeatherDisplay:10.37,2013-02-20 12:07:00,
2013-02-20 07:08:00,24.0,15.6,30.18,WNW,288,1.1,1.1,70,0.00,CLR,,0.00,WeatherDisplay:10.37,2013-02-20 12:08:00,
2013-02-20 07:12:00,23.9,15.5,30.18,WSW,241,2.3,2.3,70,0.00,CLR,,0.00,WeatherDisplay:10.37,2013-02-20 12:12:00,
2013-02-20 07:13:00,23.9,15.5,30.18,WSW,253,3.5,3.5,70,0.00,CLR,,0.00,WeatherDisplay:10.37,2013-02-20 12:13:00,
2013-02-20 07:14:00,23.9,15.5,30.18,WSW,253,3.5,3.5,70,0.00,CLR,,0.00,WeatherDisplay:10.37,2013-02-20 12:14:00,
2013-02-20 07:17:00,23.8,15.8,30.18,WSW,250,5.8,5.8,71,0.00,CLR,,0.00,WeatherDisplay:10.37,2013-02-20 12:17:00,
2013-02-20 07:18:00,23.8,15.8,30.18,West,261,4.6,4.6,71,0.00,CLR,,0.00,WeatherDisplay:10.37,2013-02-20 12:18:00,
2013-02-20 07:19:00,23.8,15.8,30.18,WSW,258,2.3,2.3,71,0.00,CLR,,0.00,WeatherDisplay:10.37,2013-02-20 12:19:00,
2013-02-20 07:23:00,23.8,15.8,30.18,WNW,284,3.5,3.5,71,0.00,CLR,,0.00,WeatherDisplay:10.37,2013-02-20 12:23:00,
2013-02-20 07:24:00,23.8,15.8,30.18,WSW,250,3.5,3.5,71,0.00,CLR,,0.00,WeatherDisplay:10.37,2013-02-20 12:24:00,
2013-02-20 07:28:00,23.8,15.8,30.18,WSW,257,4.6,4.6,71,0.00,CLR,,0.00,WeatherDisplay:10.37,2013-02-20 12:28:00,
2013-02-20 07:29:00,23.8,15.8,30.18,West,264,3.5,3.5,71,0.00,CLR,,0.00,WeatherDisplay:10.37,2013-02-20 12:29:00,
2013-02-20 07:33:00,23.8,15.8,30.18,WSW,242,5.8,5.8,71,0.00,CLR,,0.00,WeatherDisplay:10.37,2013-02-20 12:33:00,
2013-02-20 07:34:00,23.8,15.8,30.18,WSW,256,5.8,5.8,71,0.00,CLR,,0.00,WeatherDisplay:10.37,2013-02-20 12:34:00,
2013-02-20 07:38:00,23.7,15.7,30.18,WSW,256,4.0,4.0,71,0.00,CLR,,0.00,WeatherDisplay:10.37,2013-02-20 12:38:00,
2013-02-20 07:39:00,23.8,15.8,30.19,West,267,3.5,3.5,71,0.00,CLR,,0.00,WeatherDisplay:10.37,2013-02-20 12:39:00,
2013-02-20 07:43:00,23.8,15.8,30.19,NW,305,3.5,3.5,71,0.00,CLR,,0.00,WeatherDisplay:10.37,2013-02-20 12:43:00,
2013-02-20 07:44:00,23.8,15.8,30.19,WSW,257,3.5,3.5,71,0.00,CLR,,0.00,WeatherDisplay:10.37,2013-02-20 12:44:00,
2013-02-20 07:45:00,23.9,15.9,30.19,WSW,251,3.5,3.5,71,0.00,CLR,,0.00,WeatherDisplay:10.37,2013-02-20 12:45:00,
2013-02-20 07:48:00,24.0,16.0,30.19,West,261,3.5,3.5,71,0.00,CLR,,0.00,WeatherDisplay:10.37,2013-02-20 12:48:00,
2013-02-20 07:49:00,24.0,16.0,30.19,WSW,246,6.0,6.0,71,0.00,CLR,,0.00,WeatherDisplay:10.37,2013-02-20 12:49:00,
2013-02-20 07:50:00,24.1,15.7,30.19,WSW,248,6.9,6.9,70,0.00,CLR,,0.00,WeatherDisplay:10.37,2013-02-20 12:50:00,
2013-02-20 07:53:00,24.4,16.0,30.20,West,263,3.5,3.5,70,0.00,CLR,,0.00,WeatherDisplay:10.37,2013-02-20 12:53:00,
2013-02-20 07:54:00,24.5,16.1,30.20,SW,225,5.0,5.0,70,0.00,CLR,,0.00,WeatherDisplay:10.37,2013-02-20 12:54:00,
2013-02-20 07:55:00,24.5,16.1,30.20,West,276,4.6,4.6,70,0.00,CLR,,0.00,WeatherDisplay:10.37,2013-02-20 12:55:00,
2013-02-20 07:59:00,24.9,16.2,30.20,West,262,4.6,4.6,69,0.00,CLR,,0.00,WeatherDisplay:10.37,2013-02-20 12:59:00,
2013-02-20 08:00:00,24.9,16.2,30.20,West,267,4.6,4.6,69,0.00,CLR,,0.00,WeatherDisplay:10.37,2013-02-20 13:00:00,
2013-02-20 08:04:00,25.3,16.2,30.20,SW,232,4.6,4.6,68,0.00,CLR,,0.00,WeatherDisplay:10.37,2013-02-20 13:04:00,
2013-02-20 08:05:00,25.3,16.2,30.20,West,266,3.5,3.5,68,0.00,CLR,,0.00,WeatherDisplay:10.37,2013-02-20 13:05:00,
2013-02-20 08:09:00,25.6,16.2,30.19,West,262,6.0,6.0,67,0.00,CLR,,0.00,WeatherDisplay:10.37,2013-02-20 13:09:00,
2013-02-20 08:10:00,25.7,16.3,30.20,West,260,5.8,5.8,67,0.00,CLR,,0.00,WeatherDisplay:10.37,2013-02-20 13:10:00,
2013-02-20 08:14:00,25.9,16.1,30.19,West,271,8.1,8.1,66,0.00,CLR,,0.00,WeatherDisplay:10.37,2013-02-20 13:14:00,
2013-02-20 08:15:00,25.9,16.1,30.20,West,267,5.8,5.8,66,0.00,CLR,,0.00,WeatherDisplay:10.37,2013-02-20 13:15:00,
2013-02-20 08:16:00,26.0,16.2,30.20,WSW,257,6.9,6.9,66,0.00,CLR,,0.00,WeatherDisplay:10.37,2013-02-20 13:16:00,
2013-02-20 08:19:00,26.2,16.0,30.20,WSW,255,4.6,4.6,65,0.00,CLR,,0.00,WeatherDisplay:10.37,2013-02-20 13:19:00,
2013-02-20 08:20:00,26.3,16.1,30.20,West,262,8.1,8.1,65,0.00,CLR,,0.00,WeatherDisplay:10.37,2013-02-20 13:20:00,
2013-02-20 08:21:00,26.3,16.1,30.20,WSW,250,8.1,8.1,65,0.00,CLR,,0.00,WeatherDisplay:10.37,2013-02-20 13:21:00,
2013-02-20 08:24:00,26.5,16.3,30.20,WSW,241,5.8,5.8,65,0.00,CLR,,0.00,WeatherDisplay:10.37,2013-02-20 13:24:00,
2013-02-20 08:25:00,26.5,16.3,30.20,WSW,242,5.8,5.8,65,0.00,CLR,,0.00,WeatherDisplay:10.37,2013-02-20 13:25:00,
2013-02-20 08:26:00,26.6,16.4,30.20,WSW,241,9.2,9.2,65,0.00,CLR,,0.00,WeatherDisplay:10.37,2013-02-20 13:26:00,
2013-02-20 08:29:00,26.8,16.2,30.20,West,269,9.2,9.2,64,0.00,CLR,,0.00,WeatherDisplay:10.37,2013-02-20 13:29:00,
2013-02-20 08:30:00,26.8,16.2,30.20,West,262,8.1,8.1,64,0.00,CLR,,0.00,WeatherDisplay:10.37,2013-02-20 13:30:00,
2013-02-20 08:31:00,26.8,16.2,30.20,West,276,9.2,9.2,64,0.00,CLR,,0.00,WeatherDisplay:10.37,2013-02-20 13:31:00,
2013-02-20 08:32:00,26.9,16.3,30.20,WSW,239,9.2,9.2,64,0.00,CLR,,0.00,WeatherDisplay:10.37,2013-02-20 13:32:00,
2013-02-20 08:34:00,27.0,16.4,30.20,WSW,252,5.8,5.8,64,0.00,CLR,,0.00,WeatherDisplay:10.37,2013-02-20 13:34:00,
2013-02-20 08:35:00,27.1,16.5,30.20,WSW,243,5.8,5.8,64,0.00,CLR,,0.00,WeatherDisplay:10.37,2013-02-20 13:35:00,
2013-02-20 08:36:00,27.1,16.2,30.20,SW,220,8.1,8.1,63,0.00,CLR,,0.00,WeatherDisplay:10.37,2013-02-20 13:36:00,
2013-02-20 08:38:00,27.2,16.3,30.20,SSW,196,11.5,11.5,63,0.00,CLR,,0.00,WeatherDisplay:10.37,2013-02-20 13:38:00,
2013-02-20 08:39:00,27.3,16.4,30.20,WSW,255,6.9,6.9,63,0.00,CLR,,0.00,WeatherDisplay:10.37,2013-02-20 13:39:00,
2013-02-20 08:40:00,27.3,16.4,30.20,WNW,283,5.8,5.8,63,0.00,CLR,,0.00,WeatherDisplay:10.37,2013-02-20 13:40:00,
2013-02-20 08:41:00,27.4,16.4,30.20,SW,231,5.8,5.8,63,0.00,CLR,,0.00,WeatherDisplay:10.37,2013-02-20 13:41:00,
2013-02-20 08:43:00,27.5,16.2,30.20,West,279,8.1,8.1,62,0.00,CLR,,0.00,WeatherDisplay:10.37,2013-02-20 13:43:00,
2013-02-20 08:45:00,27.5,16.2,30.20,SW,235,9.2,9.2,62,0.00,CLR,,0.00,WeatherDisplay:10.37,2013-02-20 13:45:00,
2013-02-20 08:46:00,27.6,16.3,30.20,NW,316,10.4,10.4,62,0.00,CLR,,0.00,WeatherDisplay:10.37,2013-02-20 13:46:00,
2013-02-20 08:48:00,27.8,16.1,30.20,NW,316,11.0,11.0,61,0.00,CLR,,0.00,WeatherDisplay:10.37,2013-02-20 13:48:00,
2013-02-20 08:50:00,27.8,15.3,30.20,West,264,11.5,11.5,59,0.00,CLR,,0.00,WeatherDisplay:10.37,2013-02-20 13:50:00,
2013-02-20 08:51:00,27.9,15.4,30.20,WSW,256,8.0,8.0,59,0.00,CLR,,0.00,WeatherDisplay:10.37,2013-02-20 13:51:00,
2013-02-20 08:53:00,28.1,16.4,30.20,WSW,255,4.6,4.6,61,0.00,CLR,,0.00,WeatherDisplay:10.37,2013-02-20 13:53:00,
2013-02-20 08:55:00,28.2,16.1,30.20,WNW,283,6.9,6.9,60,0.00,CLR,,0.00,WeatherDisplay:10.37,2013-02-20 13:55:00,
2013-02-20 08:56:00,28.3,15.8,30.20,SW,235,6.9,6.9,59,0.00,CLR,,0.00,WeatherDisplay:10.37,2013-02-20 13:56:00,
2013-02-20 08:58:00,28.5,16.0,30.20,WSW,237,11.5,11.5,59,0.00,CLR,,0.00,WeatherDisplay:10.37,2013-02-20 13:58:00,
2013-02-20 09:00:00,28.5,15.6,30.20,SW,228,10.4,10.4,58,0.00,CLR,,0.00,WeatherDisplay:10.37,2013-02-20 14:00:00,
2013-02-20 09:01:00,28.5,15.6,30.20,SW,229,11.5,11.5,58,0.00,CLR,,0.00,WeatherDisplay:10.37,2013-02-20 14:01:00,
2013-02-20 09:02:00,28.5,15.2,30.20,West,263,11.5,11.5,57,0.00,CLR,,0.00,WeatherDisplay:10.37,2013-02-20 14:02:00,
2013-02-20 09:04:00,28.5,15.2,30.20,WSW,253,10.4,10.4,57,0.00,CLR,,0.00,WeatherDisplay:10.37,2013-02-20 14:04:00,
2013-02-20 09:06:00,28.5,14.8,30.20,WSW,240,9.2,9.2,56,0.00,CLR,,0.00,WeatherDisplay:10.37,2013-02-20 14:06:00,
2013-02-20 09:07:00,28.6,14.9,30.20,WSW,243,12.0,12.0,56,0.00,CLR,,0.00,WeatherDisplay:10.37,2013-02-20 14:07:00,
2013-02-20 09:09:00,28.6,14.5,30.20,WSW,245,6.9,6.9,55,0.00,CLR,,0.00,WeatherDisplay:10.37,2013-02-20 14:09:00,
2013-02-20 09:11:00,28.8,14.6,30.20,WSW,253,11.5,11.5,55,0.00,CLR,,0.00,WeatherDisplay:10.37,2013-02-20 14:11:00,
2013-02-20 09:12:00,28.8,14.6,30.20,West,274,10.4,10.4,55,0.00,CLR,,0.00,WeatherDisplay:10.37,2013-02-20 14:12:00,
2013-02-20 09:14:00,29.0,14.8,30.21,WSW,248,11.5,11.5,55,0.00,CLR,,0.00,WeatherDisplay:10.37,2013-02-20 14:14:00,
2013-02-20 09:16:00,28.9,13.5,30.21,WSW,246,15.0,15.0,52,0.00,CLR,,0.00,WeatherDisplay:10.37,2013-02-20 14:16:00,
2013-02-20 09:17:00,28.9,13.9,30.21,West,273,6.0,6.0,53,0.00,CLR,,0.00,WeatherDisplay:10.37,2013-02-20 14:17:00,
2013-02-20 09:19:00,29.0,13.6,30.21,West,271,8.1,8.1,52,0.00,CLR,,0.00,WeatherDisplay:10.37,2013-02-20 14:19:00,
2013-02-20 09:22:00,29.2,14.6,30.21,NW,308,8.0,8.0,54,0.00,CLR,,0.00,WeatherDisplay:10.37,2013-02-20 14:22:00,
2013-02-20 09:23:00,29.3,13.8,30.21,WNW,301,11.0,11.0,52,0.00,CLR,,0.00,WeatherDisplay:10.37,2013-02-20 14:23:00,
2013-02-20 09:24:00,29.3,13.8,30.21,WNW,291,13.8,13.8,52,0.00,CLR,,0.00,WeatherDisplay:10.37,2013-02-20 14:24:00,
2013-02-20 09:27:00,29.4,13.9,30.21,WSW,241,8.1,8.1,52,0.00,CLR,,0.00,WeatherDisplay:10.37,2013-02-20 14:27:00,
2013-02-20 09:28:00,29.4,13.5,30.21,WSW,247,11.5,11.5,51,0.00,CLR,,0.00,WeatherDisplay:10.37,2013-02-20 14:28:00,
2013-02-20 09:29:00,29.4,13.9,30.20,WSW,250,8.1,8.1,52,0.00,CLR,,0.00,WeatherDisplay:10.37,2013-02-20 14:29:00,
2013-02-20 09:32:00,29.5,13.1,30.21,WSW,245,13.8,13.8,50,0.00,CLR,,0.00,WeatherDisplay:10.37,2013-02-20 14:32:00,
2013-02-20 09:33:00,29.5,13.1,30.21,WSW,237,11.5,11.5,50,0.00,CLR,,0.00,WeatherDisplay:10.37,2013-02-20 14:33:00,
2013-02-20 09:35:00,29.4,13.0,30.21,WNW,291,12.7,12.7,50,0.00,CLR,,0.00,WeatherDisplay:10.37,2013-02-20 14:35:00,
2013-02-20 09:37:00,29.5,13.6,30.21,West,276,4.0,4.0,51,0.00,CLR,,0.00,WeatherDisplay:10.37,2013-02-20 14:37:00,
2013-02-20 09:38:00,29.7,14.2,30.21,West,281,9.2,9.2,52,0.00,CLR,,0.00,WeatherDisplay:10.37,2013-02-20 14:38:00,
2013-02-20 09:39:00,29.7,14.2,30.21,WSW,238,10.4,10.4,52,0.00,CLR,,0.00,WeatherDisplay:10.37,2013-02-20 14:39:00,
2013-02-20 09:41:00,29.9,13.9,30.21,WSW,243,8.1,8.1,51,0.00,CLR,,0.00,WeatherDisplay:10.37,2013-02-20 14:41:00,
2013-02-20 09:42:00,30.1,13.7,30.21,SW,235,8.1,8.1,50,0.00,CLR,,0.00,WeatherDisplay:10.37,2013-02-20 14:42:00,
2013-02-20 09:43:00,30.1,13.7,30.21,WSW,242,10.4,10.4,50,0.00,CLR,,0.00,WeatherDisplay:10.37,2013-02-20 14:43:00,
2013-02-20 09:45:00,30.2,13.8,30.21,SW,221,6.9,6.9,50,0.00,CLR,,0.00,WeatherDisplay:10.37,2013-02-20 14:45:00,
2013-02-20 09:46:00,30.2,13.3,30.21,WSW,258,11.5,11.5,49,0.00,CLR,,0.00,WeatherDisplay:10.37,2013-02-20 14:46:00,
2013-02-20 09:48:00,30.2,12.8,30.21,WNW,286,11.5,11.5,48,0.00,CLR,,0.00,WeatherDisplay:10.37,2013-02-20 14:48:00,
2013-02-20 09:50:00,30.2,13.3,30.20,WNW,297,6.9,6.9,49,0.00,CLR,,0.00,WeatherDisplay:10.37,2013-02-20 14:50:00,
2013-02-20 09:51:00,30.4,14.0,30.20,NW,307,7.0,7.0,50,0.00,CLR,,0.00,WeatherDisplay:10.37,2013-02-20 14:51:00,
2013-02-20 09:53:00,30.4,13.0,30.20,SW,235,11.5,11.5,48,0.00,CLR,,0.00,WeatherDisplay:10.37,2013-02-20 14:53:00,
2013-02-20 09:54:00,30.5,13.1,30.20,WSW,247,11.5,11.5,48,0.00,CLR,,0.00,WeatherDisplay:10.37,2013-02-20 14:54:00,
2013-02-20 09:55:00,30.5,12.6,30.20,WSW,252,10.4,10.4,47,0.00,CLR,,0.00,WeatherDisplay:10.37,2013-02-20 14:55:00,
2013-02-20 09:57:00,30.4,12.1,30.20,WSW,253,12.7,12.7,46,0.00,CLR,,0.00,WeatherDisplay:10.37,2013-02-20 14:57:00,
2013-02-20 09:59:00,30.5,13.1,30.20,SW,236,9.2,9.2,48,0.00,CLR,,0.00,WeatherDisplay:10.37,2013-02-20 14:59:00,
2013-02-20 10:01:00,30.8,12.9,30.21,WSW,238,9.2,9.2,47,0.00,CLR,,0.00,WeatherDisplay:10.37,2013-02-20 15:01:00,
2013-02-20 10:02:00,30.9,12.0,30.20,WNW,283,13.8,13.8,45,0.00,CLR,,0.00,WeatherDisplay:10.37,2013-02-20 15:02:00,
2013-02-20 10:04:00,31.0,12.1,30.21,WSW,242,9.2,9.2,45,0.00,CLR,,0.00,WeatherDisplay:10.37,2013-02-20 15:04:00,
2013-02-20 10:06:00,31.1,13.2,30.21,WSW,257,11.5,11.5,47,0.00,CLR,,0.00,WeatherDisplay:10.37,2013-02-20 15:06:00,
2013-02-20 10:07:00,31.2,13.3,30.21,NW,308,9.2,9.2,47,0.00,CLR,,0.00,WeatherDisplay:10.37,2013-02-20 15:07:00,
2013-02-20 10:09:00,31.3,13.9,30.20,NW,316,11.0,11.0,48,0.00,CLR,,0.00,WeatherDisplay:10.37,2013-02-20 15:09:00,
2013-02-20 10:11:00,31.4,13.0,30.20,WSW,253,10.4,10.4,46,0.00,CLR,,0.00,WeatherDisplay:10.37,2013-02-20 15:11:00,
2013-02-20 10:12:00,31.5,12.6,30.20,WSW,252,11.5,11.5,45,0.00,CLR,,0.00,WeatherDisplay:10.37,2013-02-20 15:12:00,
2013-02-20 10:14:00,31.7,13.7,30.20,West,265,7.0,7.0,47,0.00,CLR,,0.00,WeatherDisplay:10.37,2013-02-20 15:14:00,
2013-02-20 10:15:00,31.7,13.3,30.20,WNW,293,6.9,6.9,46,0.00,CLR,,0.00,WeatherDisplay:10.37,2013-02-20 15:15:00,
2013-02-20 10:16:00,31.7,12.8,30.21,SW,229,10.4,10.4,45,0.00,CLR,,0.00,WeatherDisplay:10.37,2013-02-20 15:16:00,
2013-02-20 10:18:00,31.8,13.3,30.20,West,262,8.1,8.1,46,0.00,CLR,,0.00,WeatherDisplay:10.37,2013-02-20 15:18:00,
2013-02-20 10:19:00,32.0,13.5,30.20,WSW,257,9.0,9.0,46,0.00,CLR,,0.00,WeatherDisplay:10.37,2013-02-20 15:19:00,
2013-02-20 10:20:00,32.0,13.0,30.20,WSW,241,11.5,11.5,45,0.00,CLR,,0.00,WeatherDisplay:10.37,2013-02-20 15:20:00,
2013-02-20 10:21:00,32.0,13.0,30.20,SW,226,11.5,11.5,45,0.00,CLR,,0.00,WeatherDisplay:10.37,2013-02-20 15:21:00,
2013-02-20 10:23:00,31.9,12.4,30.20,WSW,255,7.0,7.0,44,0.00,CLR,,0.00,WeatherDisplay:10.37,2013-02-20 15:23:00,
2013-02-20 10:24:00,31.9,11.9,30.20,WSW,244,8.1,8.1,43,0.00,CLR,,0.00,WeatherDisplay:10.37,2013-02-20 15:24:00,
2013-02-20 10:25:00,31.9,11.9,30.20,SW,234,10.4,10.4,43,0.00,CLR,,0.00,WeatherDisplay:10.37,2013-02-20 15:25:00,
2013-02-20 10:26:00,31.9,12.4,30.20,South,182,8.1,8.1,44,0.00,CLR,,0.00,WeatherDisplay:10.37,2013-02-20 15:26:00,
2013-02-20 10:28:00,32.0,12.5,30.20,WSW,238,9.2,9.2,44,0.00,CLR,,0.00,WeatherDisplay:10.37,2013-02-20 15:28:00,
2013-02-20 10:29:00,32.0,12.5,30.20,SW,234,10.0,10.0,44,0.00,CLR,,0.00,WeatherDisplay:10.37,2013-02-20 15:29:00,
2013-02-20 10:30:00,32.0,12.5,30.20,WSW,243,11.5,11.5,44,0.00,CLR,,0.00,WeatherDisplay:10.37,2013-02-20 15:30:00,
2013-02-20 10:31:00,32.0,13.0,30.20,WSW,245,10.0,10.0,45,0.00,CLR,,0.00,WeatherDisplay:10.37,2013-02-20 15:31:00,
2013-02-20 10:34:00,31.9,11.9,30.20,WSW,243,11.5,11.5,43,0.00,CLR,,0.00,WeatherDisplay:10.37,2013-02-20 15:34:00,
2013-02-20 10:35:00,31.8,11.8,30.20,WSW,248,12.0,12.0,43,0.00,CLR,,0.00,WeatherDisplay:10.37,2013-02-20 15:35:00,
2013-02-20 10:38:00,31.7,12.2,30.20,West,260,9.2,9.2,44,0.00,CLR,,0.00,WeatherDisplay:10.37,2013-02-20 15:38:00,
2013-02-20 10:39:00,31.8,12.3,30.20,WNW,296,11.5,11.5,44,0.00,CLR,,0.00,WeatherDisplay:10.37,2013-02-20 15:39:00,
2013-02-20 10:40:00,31.9,12.4,30.20,SW,235,10.4,10.4,44,0.00,CLR,,0.00,WeatherDisplay:10.37,2013-02-20 15:40:00,
2013-02-20 10:43:00,32.2,12.2,30.20,West,268,10.4,10.4,43,0.00,CLR,,0.00,WeatherDisplay:10.37,2013-02-20 15:43:00,
2013-02-20 10:44:00,32.3,12.3,30.20,West,265,11.5,11.5,43,0.00,CLR,,0.00,WeatherDisplay:10.37,2013-02-20 15:44:00,
2013-02-20 10:46:00,32.7,14.2,30.20,WSW,255,5.8,5.8,46,0.00,CLR,,0.00,WeatherDisplay:10.37,2013-02-20 15:46:00,
2013-02-20 10:48:00,32.8,12.2,30.20,West,274,11.5,11.5,42,0.00,CLR,,0.00,WeatherDisplay:10.37,2013-02-20 15:48:00,
2013-02-20 10:49:00,32.7,12.1,30.20,WNW,282,11.5,11.5,42,0.00,CLR,,0.00,WeatherDisplay:10.37,2013-02-20 15:49:00,
2013-02-20 10:50:00,32.7,12.1,30.20,WSW,242,10.4,10.4,42,0.00,CLR,,0.00,WeatherDisplay:10.37,2013-02-20 15:50:00,
2013-02-20 10:51:00,32.6,11.5,30.20,WSW,243,6.0,6.0,41,0.00,CLR,,0.00,WeatherDisplay:10.37,2013-02-20 15:51:00,
2013-02-20 10:53:00,32.6,11.5,30.20,WSW,245,11.5,11.5,41,0.00,CLR,,0.00,WeatherDisplay:10.37,2013-02-20 15:53:00,
2013-02-20 10:55:00,32.6,11.5,30.20,WSW,242,11.5,11.5,41,0.00,CLR,,0.00,WeatherDisplay:10.37,2013-02-20 15:55:00,
2013-02-20 10:56:00,32.6,11.5,30.20,WSW,244,9.2,9.2,41,0.00,CLR,,0.00,WeatherDisplay:10.37,2013-02-20 15:56:00,
2013-02-20 10:58:00,32.9,12.3,30.20,NW,312,11.5,11.5,42,0.00,CLR,,0.00,WeatherDisplay:10.37,2013-02-20 15:58:00,
2013-02-20 11:00:00,33.1,12.5,30.20,WSW,249,11.0,11.0,42,0.00,CLR,,0.00,WeatherDisplay:10.37,2013-02-20 16:00:00,
2013-02-20 11:01:00,33.1,11.9,30.20,WNW,288,12.7,12.7,41,0.00,CLR,,0.00,WeatherDisplay:10.37,2013-02-20 16:01:00,
2013-02-20 11:02:00,33.1,11.9,30.20,WSW,250,8.1,8.1,41,0.00,CLR,,0.00,WeatherDisplay:10.37,2013-02-20 16:02:00,
2013-02-20 11:04:00,33.2,12.6,30.20,WSW,253,8.1,8.1,42,0.00,CLR,,0.00,WeatherDisplay:10.37,2013-02-20 16:04:00,
2013-02-20 11:05:00,33.3,12.1,30.20,West,265,10.4,10.4,41,0.00,CLR,,0.00,WeatherDisplay:10.37,2013-02-20 16:05:00,
2013-02-20 11:06:00,33.3,12.1,30.20,WSW,250,11.5,11.5,41,0.00,CLR,,0.00,WeatherDisplay:10.37,2013-02-20 16:06:00,
2013-02-20 11:07:00,33.2,12.0,30.20,WSW,257,11.5,11.5,41,0.00,CLR,,0.00,WeatherDisplay:10.37,2013-02-20 16:07:00,
2013-02-20 11:09:00,33.4,12.7,30.20,West,279,9.2,9.2,42,0.00,CLR,,0.00,WeatherDisplay:10.37,2013-02-20 16:09:00,
2013-02-20 11:11:00,33.4,12.2,30.20,West,268,11.5,11.5,41,0.00,CLR,,0.00,WeatherDisplay:10.37,2013-02-20 16:11:00,
2013-02-20 11:12:00,33.4,11.6,30.20,WNW,282,13.8,13.8,40,0.00,CLR,,0.00,WeatherDisplay:10.37,2013-02-20 16:12:00,
2013-02-20 11:15:00,33.5,12.3,30.20,West,266,7.0,16.0,41,0.00,CLR,,0.00,WeatherDisplay:10.37,2013-02-20 16:15:00,
2013-02-20 11:17:00,33.7,12.5,30.20,WSW,241,7.0,7.0,41,0.00,CLR,,0.00,WeatherDisplay:10.37,2013-02-20 16:17:00,
2013-02-20 11:18:00,33.8,12.6,30.20,WNW,300,10.4,10.4,41,0.00,CLR,,0.00,WeatherDisplay:10.37,2013-02-20 16:18:00,
2013-02-20 11:20:00,34.0,13.3,30.20,West,272,5.0,12.0,42,0.00,CLR,,0.00,WeatherDisplay:10.37,2013-02-20 16:20:00,
2013-02-20 11:22:00,34.4,13.6,30.20,WSW,256,10.0,10.0,42,0.00,CLR,,0.00,WeatherDisplay:10.37,2013-02-20 16:22:00,
2013-02-20 11:23:00,34.4,13.6,30.20,SW,229,8.0,8.0,42,0.00,CLR,,0.00,WeatherDisplay:10.37,2013-02-20 16:23:00,
2013-02-20 11:25:00,34.5,13.2,30.20,West,272,13.8,13.8,41,0.00,CLR,,0.00,WeatherDisplay:10.37,2013-02-20 16:25:00,
2013-02-20 11:28:00,34.1,12.3,30.20,SSW,200,8.1,8.1,40,0.00,CLR,,0.00,WeatherDisplay:10.37,2013-02-20 16:28:00,
2013-02-20 11:29:00,34.1,12.8,30.20,SW,234,11.5,11.5,41,0.00,CLR,,0.00,WeatherDisplay:10.37,2013-02-20 16:29:00,
2013-02-20 11:30:00,34.2,12.4,30.20,WNW,287,8.1,8.1,40,0.00,CLR,,0.00,WeatherDisplay:10.37,2013-02-20 16:30:00,
2013-02-20 11:33:00,34.1,12.8,30.20,SSW,199,11.5,11.5,41,0.00,CLR,,0.00,WeatherDisplay:10.37,2013-02-20 16:33:00,
2013-02-20 11:34:00,34.1,12.3,30.20,SW,222,10.4,10.4,40,0.00,CLR,,0.00,WeatherDisplay:10.37,2013-02-20 16:34:00,
2013-02-20 11:35:00,34.0,12.2,30.20,WSW,257,12.7,12.7,40,0.00,CLR,,0.00,WeatherDisplay:10.37,2013-02-20 16:35:00,
2013-02-20 11:38:00,33.8,11.4,30.20,West,275,13.8,13.8,39,0.00,CLR,,0.00,WeatherDisplay:10.37,2013-02-20 16:38:00,
2013-02-20 11:39:00,33.8,11.4,30.20,WSW,237,11.5,11.5,39,0.00,CLR,,0.00,WeatherDisplay:10.37,2013-02-20 16:39:00,
2013-02-20 11:40:00,33.8,12.6,30.20,WSW,241,12.0,12.0,41,0.00,CLR,,0.00,WeatherDisplay:10.37,2013-02-20 16:40:00,
2013-02-20 11:44:00,34.3,13.6,30.20,WNW,300,11.5,11.5,42,0.00,CLR,,0.00,WeatherDisplay:10.37,2013-02-20 16:44:00,
2013-02-20 11:45:00,34.5,13.7,30.20,WSW,256,11.5,11.5,42,0.00,CLR,,0.00,WeatherDisplay:10.37,2013-02-20 16:45:00,
2013-02-20 11:49:00,34.6,12.1,30.20,SW,227,11.5,11.5,39,0.00,CLR,,0.00,WeatherDisplay:10.37,2013-02-20 16:49:00,
2013-02-20 11:50:00,34.5,12.6,30.20,SW,229,11.5,11.5,40,0.00,CLR,,0.00,WeatherDisplay:10.37,2013-02-20 16:50:00,
2013-02-20 11:54:00,35.0,12.5,30.20,WSW,241,10.4,10.4,39,0.00,CLR,,0.00,WeatherDisplay:10.37,2013-02-20 16:54:00,
2013-02-20 11:55:00,35.0,11.9,30.20,SW,236,8.1,8.1,38,0.00,CLR,,0.00,WeatherDisplay:10.37,2013-02-20 16:55:00,
2013-02-20 12:00:00,35.1,13.2,30.20,WSW,256,3.0,14.0,40,0.00,CLR,,0.00,WeatherDisplay:10.37,2013-02-20 17:00:00,
2013-02-20 12:01:00,35.2,13.3,30.20,WNW,297,15.0,15.0,40,0.00,CLR,,0.00,WeatherDisplay:10.37,2013-02-20 17:01:00,
2013-02-20 12:05:00,35.3,12.2,30.20,WNW,289,9.2,9.2,38,0.00,CLR,,0.00,WeatherDisplay:10.37,2013-02-20 17:05:00,
2013-02-20 12:06:00,35.3,13.3,30.19,WSW,255,6.0,6.0,40,0.00,CLR,,0.00,WeatherDisplay:10.37,2013-02-20 17:06:00,
2013-02-20 12:10:00,35.7,13.1,30.19,West,260,12.7,12.7,39,0.00,CLR,,0.00,WeatherDisplay:10.37,2013-02-20 17:10:00,
2013-02-20 12:11:00,35.8,12.0,30.19,West,260,6.9,6.9,37,0.00,CLR,,0.00,WeatherDisplay:10.37,2013-02-20 17:11:00,
2013-02-20 12:12:00,35.9,13.3,30.19,West,271,14.0,14.0,39,0.00,CLR,,0.00,WeatherDisplay:10.37,2013-02-20 17:12:00,
2013-02-20 12:15:00,36.1,11.7,30.19,WSW,243,9.2,9.2,36,0.00,CLR,,0.00,WeatherDisplay:10.37,2013-02-20 17:15:00,
2013-02-20 12:16:00,36.2,12.4,30.19,West,260,9.0,9.0,37,0.00,CLR,,0.00,WeatherDisplay:10.37,2013-02-20 17:16:00,
2013-02-20 12:17:00,36.3,13.1,30.20,WSW,243,9.2,9.2,38,0.00,CLR,,0.00,WeatherDisplay:10.37,2013-02-20 17:17:00,
2013-02-20 12:20:00,36.6,12.1,30.20,WSW,258,16.1,16.1,36,0.00,CLR,,0.00,WeatherDisplay:10.37,2013-02-20 17:20:00,
2013-02-20 12:21:00,36.5,11.4,30.20,WSW,244,11.5,11.5,35,0.00,CLR,,0.00,WeatherDisplay:10.37,2013-02-20 17:21:00,
2013-02-20 12:22:00,36.4,12.6,30.19,WNW,303,11.5,11.5,37,0.00,CLR,,0.00,WeatherDisplay:10.37,2013-02-20 17:22:00,
2013-02-20 12:25:00,36.5,13.3,30.19,WSW,241,10.4,10.4,38,0.00,CLR,,0.00,WeatherDisplay:10.37,2013-02-20 17:25:00,
2013-02-20 12:26:00,36.6,13.4,30.19,SW,221,13.8,13.8,38,0.00,CLR,,0.00,WeatherDisplay:10.37,2013-02-20 17:26:00,
2013-02-20 12:27:00,36.7,14.6,30.19,NW,313,11.5,11.5,40,0.00,CLR,,0.00,WeatherDisplay:10.37,2013-02-20 17:27:00,
2013-02-20 12:30:00,36.8,12.3,30.19,WNW,297,5.8,5.8,36,0.00,CLR,,0.00,WeatherDisplay:10.37,2013-02-20 17:30:00,
2013-02-20 12:31:00,36.8,12.3,30.19,WSW,257,4.6,4.6,36,0.00,CLR,,0.00,WeatherDisplay:10.37,2013-02-20 17:31:00,
2013-02-20 12:32:00,36.9,13.6,30.19,SW,222,6.9,6.9,38,0.00,CLR,,0.00,WeatherDisplay:10.37,2013-02-20 17:32:00,
2013-02-20 12:36:00,37.2,13.9,30.19,West,268,12.7,12.7,38,0.00,CLR,,0.00,WeatherDisplay:10.37,2013-02-20 17:36:00,
2013-02-20 12:37:00,37.2,13.9,30.19,West,259,10.4,10.4,38,0.00,CLR,,0.00,WeatherDisplay:10.37,2013-02-20 17:37:00,
2013-02-20 12:38:00,37.3,14.0,30.19,West,260,11.5,11.5,38,0.00,CLR,,0.00,WeatherDisplay:10.37,2013-02-20 17:38:00,
2013-02-20 12:41:00,37.2,13.9,30.19,SSW,212,11.5,11.5,38,0.00,CLR,,0.00,WeatherDisplay:10.37,2013-02-20 17:41:00,
2013-02-20 12:42:00,37.1,13.8,30.19,WSW,249,19.6,19.6,38,0.00,CLR,,0.00,WeatherDisplay:10.37,2013-02-20 17:42:00,
2013-02-20 12:43:00,37.1,13.2,30.19,WNW,283,11.5,11.5,37,0.00,CLR,,0.00,WeatherDisplay:10.37,2013-02-20 17:43:00,
2013-02-20 12:47:00,37.2,13.3,30.18,WNW,292,11.5,11.5,37,0.00,CLR,,0.00,WeatherDisplay:10.37,2013-02-20 17:47:00,
2013-02-20 12:48:00,37.1,12.6,30.18,West,271,9.2,9.2,36,0.00,CLR,,0.00,WeatherDisplay:10.37,2013-02-20 17:48:00,
2013-02-20 12:52:00,36.8,12.3,30.18,WSW,244,11.5,11.5,36,0.00,CLR,,0.00,WeatherDisplay:10.37,2013-02-20 17:52:00,
2013-02-20 12:53:00,36.7,11.6,30.18,WSW,237,15.0,15.0,35,0.00,CLR,,0.00,WeatherDisplay:10.37,2013-02-20 17:53:00,
2013-02-20 12:57:00,36.9,13.0,30.18,WNW,290,11.5,11.5,37,0.00,CLR,,0.00,WeatherDisplay:10.37,2013-02-20 17:57:00,
2013-02-20 12:58:00,37.0,13.1,30.18,NW,306,9.2,9.2,37,0.00,CLR,,0.00,WeatherDisplay:10.37,2013-02-20 17:58:00,
2013-02-20 12:59:00,37.3,15.2,30.18,WNW,290,9.2,9.2,40,0.00,CLR,,0.00,WeatherDisplay:10.37,2013-02-20 17:59:00,
2013-02-20 13:02:00,38.3,13.6,30.18,WSW,250,5.8,5.8,36,0.00,CLR,,0.00,WeatherDisplay:10.37,2013-02-20 18:02:00,
2013-02-20 13:03:00,38.3,13.0,30.18,WSW,245,8.1,8.1,35,0.00,CLR,,0.00,WeatherDisplay:10.37,2013-02-20 18:03:00,
2013-02-20 13:04:00,38.4,13.1,30.18,SW,224,10.0,10.0,35,0.00,CLR,,0.00,WeatherDisplay:10.37,2013-02-20 18:04:00,
2013-02-20 13:07:00,37.9,12.0,30.18,West,262,11.5,11.5,34,0.00,CLR,,0.00,WeatherDisplay:10.37,2013-02-20 18:07:00,
2013-02-20 13:08:00,37.9,12.0,30.18,WSW,255,12.7,12.7,34,0.00,CLR,,0.00,WeatherDisplay:10.37,2013-02-20 18:08:00,
2013-02-20 13:09:00,37.9,12.0,30.18,WNW,289,11.5,11.5,34,0.00,CLR,,0.00,WeatherDisplay:10.37,2013-02-20 18:09:00,
2013-02-20 13:10:00,37.9,11.3,30.18,WSW,251,12.7,12.7,33,0.00,CLR,,0.00,WeatherDisplay:10.37,2013-02-20 18:10:00,
2013-02-20 13:12:00,37.8,12.6,30.18,WSW,249,11.5,11.5,35,0.00,CLR,,0.00,WeatherDisplay:10.37,2013-02-20 18:12:00,
2013-02-20 13:13:00,37.9,12.6,30.18,WSW,241,9.0,9.0,35,0.00,CLR,,0.00,WeatherDisplay:10.37,2013-02-20 18:13:00,
2013-02-20 13:14:00,37.9,12.6,30.18,WSW,249,13.8,13.8,35,0.00,CLR,,0.00,WeatherDisplay:10.37,2013-02-20 18:14:00,
2013-02-20 13:15:00,37.8,12.6,30.18,SW,235,9.2,9.2,35,0.00,CLR,,0.00,WeatherDisplay:10.37,2013-02-20 18:15:00,
2013-02-20 13:17:00,37.8,12.6,30.18,WSW,244,12.7,12.7,35,0.00,CLR,,0.00,WeatherDisplay:10.37,2013-02-20 18:17:00,
2013-02-20 13:18:00,37.7,12.5,30.18,WSW,245,11.5,11.5,35,0.00,CLR,,0.00,WeatherDisplay:10.37,2013-02-20 18:18:00,
2013-02-20 13:19:00,37.6,12.4,30.18,WSW,256,13.0,13.0,35,0.00,CLR,,0.00,WeatherDisplay:10.37,2013-02-20 18:19:00,
2013-02-20 13:20:00,37.6,11.0,30.18,WSW,237,13.8,13.8,33,0.00,CLR,,0.00,WeatherDisplay:10.37,2013-02-20 18:20:00,
2013-02-20 13:23:00,37.7,11.1,30.18,West,275,11.5,11.5,33,0.00,CLR,,0.00,WeatherDisplay:10.37,2013-02-20 18:23:00,
2013-02-20 13:25:00,37.7,12.5,30.17,WNW,288,12.7,12.7,35,0.00,CLR,,0.00,WeatherDisplay:10.37,2013-02-20 18:25:00,
2013-02-20 13:28:00,37.9,13.3,30.17,WSW,241,11.5,11.5,36,0.00,CLR,,0.00,WeatherDisplay:10.37,2013-02-20 18:28:00,
2013-02-20 13:30:00,38.2,14.2,30.17,WSW,253,6.0,6.1,37,0.00,CLR,,0.00,WeatherDisplay:10.37,2013-02-20 18:30:00,
2013-02-20 13:31:00,38.2,14.2,30.17,SW,231,13.0,13.0,37,0.00,CLR,,0.00,WeatherDisplay:10.37,2013-02-20 18:31:00,
2013-02-20 13:33:00,38.4,14.4,30.17,SSE,167,12.7,12.7,37,0.00,CLR,,0.00,WeatherDisplay:10.37,2013-02-20 18:33:00,
2013-02-20 13:34:00,38.4,14.4,30.17,SW,223,11.5,11.5,37,0.00,CLR,,0.00,WeatherDisplay:10.37,2013-02-20 18:34:00,
2013-02-20 13:35:00,38.5,13.8,30.17,WSW,253,11.5,11.5,36,0.00,CLR,,0.00,WeatherDisplay:10.37,2013-02-20 18:35:00,
2013-02-20 13:36:00,38.4,13.1,30.17,North,11,16.1,16.1,35,0.00,CLR,,0.00,WeatherDisplay:10.37,2013-02-20 18:36:00,
2013-02-20 13:39:00,38.5,13.8,30.17,West,267,8.1,8.1,36,0.00,CLR,,0.00,WeatherDisplay:10.37,2013-02-20 18:39:00,
2013-02-20 13:40:00,38.7,13.4,30.17,WSW,244,6.9,6.9,35,0.00,CLR,,0.00,WeatherDisplay:10.37,2013-02-20 18:40:00,
2013-02-20 13:41:00,38.7,14.0,30.17,WSW,255,11.5,11.5,36,0.00,CLR,,0.00,WeatherDisplay:10.37,2013-02-20 18:41:00,
2013-02-20 13:44:00,38.9,15.4,30.17,NW,306,11.5,11.5,38,0.00,CLR,,0.00,WeatherDisplay:10.37,2013-02-20 18:44:00,
2013-02-20 13:45:00,38.9,14.2,30.17,West,269,11.5,11.5,36,0.00,CLR,,0.00,WeatherDisplay:10.37,2013-02-20 18:45:00,
2013-02-20 13:46:00,39.0,13.6,30.17,WNW,294,5.8,5.8,35,0.00,CLR,,0.00,WeatherDisplay:10.37,2013-02-20 18:46:00,
2013-02-20 13:49:00,39.2,13.8,30.17,SW,226,10.4,10.4,35,0.00,,,0.00,WeatherDisplay:10.37,2013-02-20 18:49:00,
2013-02-20 13:50:00,39.2,13.8,30.17,WSW,246,12.7,12.7,35,0.00,,,0.00,WeatherDisplay:10.37,2013-02-20 18:50:00,
2013-02-20 13:51:00,39.1,12.4,30.17,WSW,241,10.4,10.4,33,0.00,,,0.00,WeatherDisplay:10.37,2013-02-20 18:51:00,
2013-02-20 13:55:00,39.3,13.2,30.17,WSW,253,9.2,9.2,34,0.00,,,0.00,WeatherDisplay:10.37,2013-02-20 18:55:00,
2013-02-20 13:56:00,39.4,14.0,30.17,WNW,298,8.1,8.1,35,0.00,,,0.00,WeatherDisplay:10.37,2013-02-20 18:56:00,
2013-02-20 13:57:00,39.5,14.1,30.16,WNW,294,11.5,11.5,35,0.00,,,0.00,WeatherDisplay:10.37,2013-02-20 18:57:00,
2013-02-20 14:00:00,39.8,15.0,30.17,WSW,241,11.0,11.0,36,0.00,,,0.00,WeatherDisplay:10.37,2013-02-20 19:00:00,
2013-02-20 14:01:00,39.6,12.8,30.16,WSW,254,12.7,12.7,33,0.00,,,0.00,WeatherDisplay:10.37,2013-02-20 19:01:00,
2013-02-20 14:02:00,39.6,12.8,30.16,WSW,248,8.1,8.1,33,0.00,,,0.00,WeatherDisplay:10.37,2013-02-20 19:02:00,
2013-02-20 14:05:00,39.3,13.2,30.16,West,259,6.9,6.9,34,0.00,,,0.00,WeatherDisplay:10.37,2013-02-20 19:05:00,
2013-02-20 14:07:00,39.4,14.6,30.16,SW,220,8.1,8.1,36,0.00,,,0.00,WeatherDisplay:10.37,2013-02-20 19:07:00,
2013-02-20 14:10:00,39.6,12.8,30.16,West,267,9.2,9.2,33,0.00,,,0.00,WeatherDisplay:10.37,2013-02-20 19:10:00,
2013-02-20 14:12:00,39.6,12.8,30.16,West,267,7.0,7.1,33,0.00,,,0.00,WeatherDisplay:10.37,2013-02-20 19:12:00,
2013-02-20 14:13:00,39.4,12.6,30.16,WNW,283,11.5,11.5,33,0.00,,,0.00,WeatherDisplay:10.37,2013-02-20 19:13:00,
2013-02-20 14:15:00,39.5,14.1,30.16,WSW,249,10.4,10.4,35,0.00,,,0.00,WeatherDisplay:10.37,2013-02-20 19:15:00,
2013-02-20 14:18:00,39.4,12.6,30.16,WNW,293,9.2,9.2,33,0.00,,,0.00,WeatherDisplay:10.37,2013-02-20 19:18:00,
2013-02-20 14:20:00,39.2,11.8,30.16,West,274,11.5,11.5,32,0.00,,,0.00,WeatherDisplay:10.37,2013-02-20 19:20:00,
2013-02-20 14:23:00,39.4,12.6,30.16,SW,229,11.5,11.5,33,0.00,,,0.00,WeatherDisplay:10.37,2013-02-20 19:23:00,
2013-02-20 14:24:00,39.5,12.0,30.16,WNW,286,11.5,11.5,32,0.00,,,0.00,WeatherDisplay:10.37,2013-02-20 19:24:00,
2013-02-20 14:25:00,39.7,12.9,30.16,SW,222,8.1,8.1,33,0.00,,,0.00,WeatherDisplay:10.37,2013-02-20 19:25:00,
2013-02-20 14:26:00,39.7,12.2,30.17,WSW,254,13.8,13.8,32,0.00,,,0.00,WeatherDisplay:10.37,2013-02-20 19:26:00,
2013-02-20 14:28:00,39.6,11.4,30.16,West,260,17.3,17.3,31,0.00,,,0.00,WeatherDisplay:10.37,2013-02-20 19:28:00,
2013-02-20 14:29:00,39.5,11.3,30.16,WSW,244,17.3,17.3,31,0.00,,,0.00,WeatherDisplay:10.37,2013-02-20 19:29:00,
2013-02-20 14:31:00,39.3,11.1,30.16,West,265,11.5,11.5,31,0.00,,,0.00,WeatherDisplay:10.37,2013-02-20 19:31:00,
2013-02-20 14:34:00,39.4,13.3,30.16,WSW,243,11.5,11.5,34,0.00,,,0.00,WeatherDisplay:10.37,2013-02-20 19:34:00,
2013-02-20 14:36:00,39.5,12.0,30.16,WSW,248,11.5,11.5,32,0.00,,,0.00,WeatherDisplay:10.37,2013-02-20 19:36:00,
2013-02-20 14:37:00,39.5,12.0,30.16,WSW,244,6.9,6.9,32,0.00,,,0.00,WeatherDisplay:10.37,2013-02-20 19:37:00,
2013-02-20 14:39:00,39.5,12.7,30.16,West,264,10.4,10.4,33,0.00,,,0.00,WeatherDisplay:10.37,2013-02-20 19:39:00,
2013-02-20 14:40:00,39.5,12.7,30.16,WSW,249,10.4,10.4,33,0.00,,,0.00,WeatherDisplay:10.37,2013-02-20 19:40:00,
2013-02-20 14:41:00,39.6,13.5,30.16,WSW,241,8.1,8.1,34,0.00,,,0.00,WeatherDisplay:10.37,2013-02-20 19:41:00,
2013-02-20 14:42:00,39.7,12.9,30.16,WSW,241,11.5,11.5,33,0.00,,,0.00,WeatherDisplay:10.37,2013-02-20 19:42:00,
2013-02-20 14:44:00,39.6,12.8,30.16,WSW,241,11.5,11.5,33,0.00,,,0.00,WeatherDisplay:10.37,2013-02-20 19:44:00,
2013-02-20 14:45:00,39.6,13.5,30.16,WSW,243,11.5,11.5,34,0.00,,,0.00,WeatherDisplay:10.37,2013-02-20 19:45:00,
2013-02-20 14:46:00,39.7,13.6,30.16,West,281,8.1,8.1,34,0.00,,,0.00,WeatherDisplay:10.37,2013-02-20 19:46:00,
2013-02-20 14:48:00,39.7,13.6,30.16,WSW,239,6.9,6.9,34,0.00,,,0.00,WeatherDisplay:10.37,2013-02-20 19:48:00,
2013-02-20 14:49:00,39.8,13.7,30.16,WSW,253,8.1,8.1,34,0.00,,,0.00,WeatherDisplay:10.37,2013-02-20 19:49:00,
2013-02-20 14:50:00,39.7,13.6,30.16,WNW,282,10.4,10.4,34,0.00,,,0.00,WeatherDisplay:10.37,2013-02-20 19:50:00,
2013-02-20 14:51:00,39.8,13.7,30.16,WSW,241,11.5,11.5,34,0.00,,,0.00,WeatherDisplay:10.37,2013-02-20 19:51:00,
2013-02-20 14:53:00,39.9,13.1,30.16,WNW,298,5.8,5.8,33,0.00,,,0.00,WeatherDisplay:10.37,2013-02-20 19:53:00,
2013-02-20 14:54:00,40.0,15.2,30.16,West,266,12.0,12.0,36,0.00,,,0.00,WeatherDisplay:10.37,2013-02-20 19:54:00,
2013-02-20 14:55:00,40.1,13.9,30.16,WSW,240,11.5,11.5,34,0.00,,,0.00,WeatherDisplay:10.37,2013-02-20 19:55:00,
2013-02-20 14:57:00,40.1,13.9,30.16,West,279,11.5,11.5,34,0.00,,,0.00,WeatherDisplay:10.37,2013-02-20 19:57:00,
2013-02-20 14:58:00,40.1,12.6,30.16,WSW,257,10.4,10.4,32,0.00,,,0.00,WeatherDisplay:10.37,2013-02-20 19:58:00,
2013-02-20 15:00:00,40.0,12.5,30.16,SW,214,10.4,10.4,32,0.00,,,0.00,WeatherDisplay:10.37,2013-02-20 20:00:00,
2013-02-20 15:02:00,40.1,11.1,30.16,SW,230,9.2,9.2,30,0.00,,,0.00,WeatherDisplay:10.37,2013-02-20 20:02:00,
2013-02-20 15:03:00,40.0,11.8,30.16,SW,231,13.8,13.8,31,0.00,,,0.00,WeatherDisplay:10.37,2013-02-20 20:03:00,
2013-02-20 15:05:00,39.9,11.7,30.16,WSW,248,15.0,15.0,31,0.00,,,0.00,WeatherDisplay:10.37,2013-02-20 20:05:00,
2013-02-20 15:06:00,39.9,11.7,30.16,West,259,11.5,11.5,31,0.00,,,0.00,WeatherDisplay:10.37,2013-02-20 20:06:00,
2013-02-20 15:07:00,39.7,10.7,30.16,WSW,241,11.5,11.5,30,0.00,,,0.00,WeatherDisplay:10.37,2013-02-20 20:07:00,
2013-02-20 15:09:00,39.7,10.7,30.16,WSW,255,10.4,10.4,30,0.00,,,0.00,WeatherDisplay:10.37,2013-02-20 20:09:00,
2013-02-20 15:10:00,39.7,12.2,30.16,NW,320,8.1,8.1,32,0.00,,,0.00,WeatherDisplay:10.37,2013-02-20 20:10:00,
2013-02-20 15:11:00,39.7,12.2,30.16,NW,309,5.0,5.0,32,0.00,,,0.00,WeatherDisplay:10.37,2013-02-20 20:11:00,
2013-02-20 15:13:00,39.9,12.4,30.16,WSW,251,10.4,10.4,32,0.00,,,0.00,WeatherDisplay:10.37,2013-02-20 20:13:00,
2013-02-20 15:15:00,40.0,12.5,30.16,WSW,252,7.0,12.0,32,0.00,,,0.00,WeatherDisplay:10.37,2013-02-20 20:15:00,
2013-02-20 15:16:00,40.1,12.6,30.16,SSW,203,10.4,10.4,32,0.00,,,0.00,WeatherDisplay:10.37,2013-02-20 20:16:00,
2013-02-20 15:18:00,40.2,11.9,30.16,SW,232,12.7,12.7,31,0.00,,,0.00,WeatherDisplay:10.37,2013-02-20 20:18:00,
2013-02-20 15:20:00,40.1,12.6,30.16,WSW,253,13.8,13.8,32,0.00,,,0.00,WeatherDisplay:10.37,2013-02-20 20:20:00,
2013-02-20 15:21:00,40.2,12.6,30.16,West,270,5.8,5.8,32,0.00,,,0.00,WeatherDisplay:10.37,2013-02-20 20:21:00,
2013-02-20 15:22:00,40.3,14.1,30.16,West,274,5.8,5.8,34,0.00,,,0.00,WeatherDisplay:10.37,2013-02-20 20:22:00,
2013-02-20 15:24:00,40.5,12.2,30.16,SW,229,11.5,11.5,31,0.00,,,0.00,WeatherDisplay:10.37,2013-02-20 20:24:00,
2013-02-20 15:25:00,40.4,12.1,30.16,WSW,254,8.1,8.1,31,0.00,,,0.00,WeatherDisplay:10.37,2013-02-20 20:25:00,
2013-02-20 15:26:00,40.4,12.8,30.16,West,261,8.1,8.1,32,0.00,,,0.00,WeatherDisplay:10.37,2013-02-20 20:26:00,
2013-02-20 15:27:00,40.4,12.8,30.16,WNW,297,6.9,6.9,32,0.00,,,0.00,WeatherDisplay:10.37,2013-02-20 20:27:00,
2013-02-20 15:29:00,40.5,12.2,30.16,West,259,8.1,8.1,31,0.00,,,0.00,WeatherDisplay:10.37,2013-02-20 20:29:00,
2013-02-20 15:30:00,40.4,12.1,30.16,WSW,251,9.2,9.2,31,0.00,,,0.00,WeatherDisplay:10.37,2013-02-20 20:30:00,
2013-02-20 15:32:00,40.2,11.2,30.16,SW,219,10.4,10.4,30,0.00,,,0.00,WeatherDisplay:10.37,2013-02-20 20:32:00,
2013-02-20 15:33:00,40.1,11.8,30.16,WSW,241,6.9,6.9,31,0.00,,,0.00,WeatherDisplay:10.37,2013-02-20 20:33:00,
2013-02-20 15:34:00,40.1,11.8,30.16,NW,313,9.0,9.0,31,0.00,,,0.00,WeatherDisplay:10.37,2013-02-20 20:34:00,
2013-02-20 15:36:00,40.1,12.6,30.16,WSW,238,11.5,11.5,32,0.00,,,0.00,WeatherDisplay:10.37,2013-02-20 20:36:00,
2013-02-20 15:37:00,40.1,12.6,30.16,WSW,250,9.0,9.0,32,0.00,,,0.00,WeatherDisplay:10.37,2013-02-20 20:37:00,
2013-02-20 15:38:00,40.1,13.3,30.16,SW,232,15.0,15.0,33,0.00,,,0.00,WeatherDisplay:10.37,2013-02-20 20:38:00,
2013-02-20 15:39:00,40.1,11.8,30.16,SW,229,13.8,13.8,31,0.00,,,0.00,WeatherDisplay:10.37,2013-02-20 20:39:00,
2013-02-20 15:42:00,39.8,11.6,30.16,WSW,254,13.8,13.8,31,0.00,,,0.00,WeatherDisplay:10.37,2013-02-20 20:42:00,
2013-02-20 15:43:00,39.8,12.3,30.16,West,267,8.1,8.1,32,0.00,,,0.00,WeatherDisplay:10.37,2013-02-20 20:43:00,
2013-02-20 15:44:00,39.8,10.8,30.16,West,264,8.0,8.0,30,0.00,,,0.00,WeatherDisplay:10.37,2013-02-20 20:44:00,
2013-02-20 15:47:00,39.7,10.7,30.16,WNW,297,6.9,6.9,30,0.00,,,0.00,WeatherDisplay:10.37,2013-02-20 20:47:00,
2013-02-20 15:48:00,39.8,13.0,30.16,WNW,286,5.8,5.8,33,0.00,,,0.00,WeatherDisplay:10.37,2013-02-20 20:48:00,
2013-02-20 15:50:00,39.9,11.7,30.16,West,268,6.9,6.9,31,0.00,,,0.00,WeatherDisplay:10.37,2013-02-20 20:50:00,
2013-02-20 15:52:00,39.9,12.4,30.15,SW,219,10.0,10.0,32,0.00,,,0.00,WeatherDisplay:10.37,2013-02-20 20:52:00,
2013-02-20 15:53:00,39.9,12.4,30.16,WSW,255,10.4,10.4,32,0.00,,,0.00,WeatherDisplay:10.37,2013-02-20 20:53:00,
2013-02-20 15:55:00,39.8,12.3,30.16,NW,306,11.5,11.5,32,0.00,,,0.00,WeatherDisplay:10.37,2013-02-20 20:55:00,
2013-02-20 15:57:00,39.9,13.1,30.16,WNW,300,8.1,8.1,33,0.00,,,0.00,WeatherDisplay:10.37,2013-02-20 20:57:00,
2013-02-20 15:58:00,39.9,13.1,30.16,WSW,253,8.1,8.1,33,0.00,,,0.00,WeatherDisplay:10.37,2013-02-20 20:58:00,
2013-02-20 16:00:00,40.0,12.5,30.16,SW,224,11.5,11.5,32,0.00,,,0.00,WeatherDisplay:10.37,2013-02-20 21:00:00,
2013-02-20 16:02:00,40.0,11.8,30.16,West,261,11.5,11.5,31,0.00,,,0.00,WeatherDisplay:10.37,2013-02-20 21:02:00,
2013-02-20 16:03:00,40.0,11.8,30.16,WSW,241,10.4,10.4,31,0.00,,,0.00,WeatherDisplay:10.37,2013-02-20 21:03:00,
2013-02-20 16:06:00,40.0,11.0,30.16,WSW,251,10.4,10.4,30,0.00,,,0.00,WeatherDisplay:10.37,2013-02-20 21:06:00,
2013-02-20 16:07:00,40.0,11.0,30.15,WSW,248,9.0,9.0,30,0.00,,,0.00,WeatherDisplay:10.37,2013-02-20 21:07:00,
2013-02-20 16:08:00,40.0,11.8,30.15,SW,215,11.5,11.5,31,0.00,,,0.00,WeatherDisplay:10.37,2013-02-20 21:08:00,
2013-02-20 16:09:00,40.0,11.8,30.15,WSW,253,9.2,9.2,31,0.00,,,0.00,WeatherDisplay:10.37,2013-02-20 21:09:00,
2013-02-20 16:11:00,40.1,11.8,30.15,West,267,10.4,10.4,31,0.00,,,0.00,WeatherDisplay:10.37,2013-02-20 21:11:00,
2013-02-20 16:12:00,40.1,11.8,30.16,West,277,8.1,8.1,31,0.00,,,0.00,WeatherDisplay:10.37,2013-02-20 21:12:00,
2013-02-20 16:14:00,40.1,12.6,30.16,WNW,293,9.2,9.2,32,0.00,,,0.00,WeatherDisplay:10.37,2013-02-20 21:14:00,
2013-02-20 16:16:00,40.3,13.4,30.16,West,269,7.0,7.0,33,0.00,,,0.00,WeatherDisplay:10.37,2013-02-20 21:16:00,
2013-02-20 16:17:00,40.4,13.5,30.16,WNW,284,9.2,9.2,33,0.00,,,0.00,WeatherDisplay:10.37,2013-02-20 21:17:00,
2013-02-20 16:19:00,40.4,13.5,30.16,NW,312,8.1,8.1,33,0.00,,,0.00,WeatherDisplay:10.37,2013-02-20 21:19:00,
2013-02-20 16:21:00,40.3,12.7,30.16,WSW,237,5.0,5.0,32,0.00,,,0.00,WeatherDisplay:10.37,2013-02-20 21:21:00,
2013-02-20 16:23:00,40.3,12.7,30.16,WNW,286,8.1,8.1,32,0.00,,,0.00,WeatherDisplay:10.37,2013-02-20 21:23:00,
2013-02-20 16:24:00,40.4,12.8,30.16,WSW,250,6.9,6.9,32,0.00,,,0.00,WeatherDisplay:10.37,2013-02-20 21:24:00,
2013-02-20 16:26:00,40.4,12.1,30.16,West,262,10.4,10.4,31,0.00,,,0.00,WeatherDisplay:10.37,2013-02-20 21:26:00,
2013-02-20 16:28:00,40.4,12.1,30.16,West,259,5.8,5.8,31,0.00,,,0.00,WeatherDisplay:10.37,2013-02-20 21:28:00,
2013-02-20 16:29:00,40.4,12.1,30.16,WSW,253,9.2,9.2,31,0.00,,,0.00,WeatherDisplay:10.37,2013-02-20 21:29:00,
2013-02-20 16:30:00,40.4,12.1,30.16,WSW,254,5.0,10.0,31,0.00,,,0.00,WeatherDisplay:10.37,2013-02-20 21:30:00,
2013-02-20 16:32:00,40.6,13.0,30.16,West,261,8.1,8.1,32,0.00,,,0.00,WeatherDisplay:10.37,2013-02-20 21:32:00,
2013-02-20 16:34:00,40.5,11.4,30.16,WSW,249,9.2,9.2,30,0.00,,,0.00,WeatherDisplay:10.37,2013-02-20 21:34:00,
2013-02-20 16:35:00,40.3,11.3,30.16,WNW,295,12.7,12.7,30,0.00,,,0.00,WeatherDisplay:10.37,2013-02-20 21:35:00,
2013-02-20 16:37:00,40.1,11.8,30.16,WSW,237,8.1,8.1,31,0.00,,,0.00,WeatherDisplay:10.37,2013-02-20 21:37:00,
2013-02-20 16:39:00,40.1,12.6,30.16,WSW,238,11.5,11.5,32,0.00,,,0.00,WeatherDisplay:10.37,2013-02-20 21:39:00,
2013-02-20 16:40:00,40.1,12.6,30.16,WSW,239,11.5,11.5,32,0.00,,,0.00,WeatherDisplay:10.37,2013-02-20 21:40:00,
2013-02-20 16:42:00,40.3,12.7,30.16,NW,307,8.1,8.1,32,0.00,,,0.00,WeatherDisplay:10.37,2013-02-20 21:42:00,
2013-02-20 16:44:00,40.4,12.8,30.16,WSW,238,5.8,5.8,32,0.00,,,0.00,WeatherDisplay:10.37,2013-02-20 21:44:00,
2013-02-20 16:45:00,40.5,12.9,30.16,SW,234,6.9,6.9,32,0.00,,,0.00,WeatherDisplay:10.37,2013-02-20 21:45:00,
2013-02-20 16:46:00,40.4,12.1,30.17,WSW,243,5.8,5.8,31,0.00,,,0.00,WeatherDisplay:10.37,2013-02-20 21:46:00,
2013-02-20 16:47:00,40.4,12.8,30.16,West,277,6.9,6.9,32,0.00,,,0.00,WeatherDisplay:10.37,2013-02-20 21:47:00,
2013-02-20 16:50:00,40.2,12.6,30.17,WSW,255,5.8,5.8,32,0.00,,,0.00,WeatherDisplay:10.37,2013-02-20 21:50:00,
2013-02-20 16:51:00,40.1,12.6,30.17,NW,316,11.0,11.0,32,0.00,,,0.00,WeatherDisplay:10.37,2013-02-20 21:51:00,
2013-02-20 16:53:00,40.0,12.5,30.17,WSW,238,9.2,9.2,32,0.00,,,0.00,WeatherDisplay:10.37,2013-02-20 21:53:00,
2013-02-20 16:55:00,39.9,12.4,30.16,WSW,257,11.5,11.5,32,0.00,,,0.00,WeatherDisplay:10.37,2013-02-20 21:55:00,
2013-02-20 16:56:00,39.9,12.4,30.17,WSW,241,9.2,9.2,32,0.00,,,0.00,WeatherDisplay:10.37,2013-02-20 21:56:00,
2013-02-20 16:58:00,39.9,13.8,30.17,WSW,254,4.6,4.6,34,0.00,,,0.00,WeatherDisplay:10.37,2013-02-20 21:58:00,
2013-02-20 17:01:00,39.9,13.1,30.17,West,264,8.1,8.1,33,0.00,,,0.00,WeatherDisplay:10.37,2013-02-20 22:01:00,
2013-02-20 17:03:00,39.7,12.2,30.17,West,281,8.1,8.1,32,0.00,,,0.00,WeatherDisplay:10.37,2013-02-20 22:03:00,
2013-02-20 17:06:00,39.3,12.6,30.17,WNW,303,6.9,6.9,33,0.00,,,0.00,WeatherDisplay:10.37,2013-02-20 22:06:00,
2013-02-20 17:09:00,39.0,12.3,30.17,West,262,5.8,5.8,33,0.00,,,0.00,WeatherDisplay:10.37,2013-02-20 22:09:00,
2013-02-20 17:11:00,38.7,12.0,30.17,WNW,292,8.1,8.1,33,0.00,,,0.00,WeatherDisplay:10.37,2013-02-20 22:11:00,
2013-02-20 17:12:00,38.7,12.0,30.17,WNW,299,6.9,6.9,33,0.00,,,0.00,WeatherDisplay:10.37,2013-02-20 22:12:00,
2013-02-20 17:15:00,38.3,12.3,30.17,WSW,239,9.2,9.2,34,0.00,,,0.00,WeatherDisplay:10.37,2013-02-20 22:15:00,
2013-02-20 17:16:00,38.1,12.8,30.17,WSW,237,10.4,10.4,35,0.00,,,0.00,WeatherDisplay:10.37,2013-02-20 22:16:00,
2013-02-20 17:17:00,38.0,12.7,30.17,WNW,285,6.0,6.0,35,0.00,,,0.00,WeatherDisplay:10.37,2013-02-20 22:17:00,
2013-02-20 17:20:00,37.7,12.5,30.17,SSW,210,8.1,8.1,35,0.00,,,0.00,WeatherDisplay:10.37,2013-02-20 22:20:00,
2013-02-20 17:21:00,37.6,12.4,30.17,WSW,244,8.1,8.1,35,0.00,,,0.00,WeatherDisplay:10.37,2013-02-20 22:21:00,
2013-02-20 17:22:00,37.6,12.4,30.17,WSW,247,5.8,5.8,35,0.00,,,0.00,WeatherDisplay:10.37,2013-02-20 22:22:00,
2013-02-20 17:25:00,37.4,12.8,30.18,West,264,4.6,4.6,36,0.00,,,0.00,WeatherDisplay:10.37,2013-02-20 22:25:00,
2013-02-20 17:27:00,37.2,12.7,30.18,West,279,5.0,5.0,36,0.00,,,0.00,WeatherDisplay:10.37,2013-02-20 22:27:00,
2013-02-20 17:30:00,37.1,13.2,30.18,West,279,8.1,8.1,37,0.00,,,0.00,WeatherDisplay:10.37,2013-02-20 22:30:00,
2013-02-20 17:32:00,36.9,13.6,30.18,West,259,3.5,3.5,38,0.00,,,0.00,WeatherDisplay:10.37,2013-02-20 22:32:00,
2013-02-20 17:35:00,36.7,13.4,30.18,WNW,287,8.0,8.0,38,0.00,,,0.00,WeatherDisplay:10.37,2013-02-20 22:35:00,
2013-02-20 17:37:00,36.6,13.4,30.18,WSW,248,4.6,4.6,38,0.00,,,0.00,WeatherDisplay:10.37,2013-02-20 22:37:00,
2013-02-20 17:38:00,36.5,13.3,30.18,SW,229,5.8,5.8,38,0.00,,,0.00,WeatherDisplay:10.37,2013-02-20 22:38:00,
2013-02-20 17:39:00,36.5,13.9,30.18,WSW,238,4.6,4.6,39,0.00,,,0.00,WeatherDisplay:10.37,2013-02-20 22:39:00,
2013-02-20 17:40:00,36.4,13.2,30.18,NW,312,3.5,3.5,38,0.00,,,0.00,WeatherDisplay:10.37,2013-02-20 22:40:00,
2013-02-20 17:42:00,36.3,13.7,30.18,WSW,241,3.5,3.5,39,0.00,,,0.00,WeatherDisplay:10.37,2013-02-20 22:42:00,
2013-02-20 17:44:00,36.2,13.6,30.18,WSW,250,5.8,5.8,39,0.00,,,0.00,WeatherDisplay:10.37,2013-02-20 22:44:00,
2013-02-20 17:45:00,36.1,13.5,30.18,West,264,8.1,8.1,39,0.00,,,0.00,WeatherDisplay:10.37,2013-02-20 22:45:00,
2013-02-20 17:47:00,36.0,12.8,30.19,WSW,248,6.9,6.9,38,0.00,,,0.00,WeatherDisplay:10.37,2013-02-20 22:47:00,
2013-02-20 17:49:00,35.9,12.7,30.19,WNW,293,8.1,8.1,38,0.00,,,0.00,WeatherDisplay:10.37,2013-02-20 22:49:00,
2013-02-20 17:50:00,35.8,13.2,30.19,SW,227,8.0,8.0,39,0.00,,,0.00,WeatherDisplay:10.37,2013-02-20 22:50:00,
2013-02-20 17:53:00,35.7,13.1,30.19,West,259,6.9,6.9,39,0.00,,,0.00,WeatherDisplay:10.37,2013-02-20 22:53:00,
2013-02-20 17:54:00,35.6,13.0,30.19,West,275,6.9,6.9,39,0.00,,,0.00,WeatherDisplay:10.37,2013-02-20 22:54:00,
2013-02-20 17:55:00,35.5,13.0,30.19,WSW,239,3.5,3.5,39,0.00,,,0.00,WeatherDisplay:10.37,2013-02-20 22:55:00,
2013-02-20 17:58:00,35.3,13.3,30.19,SW,231,4.0,4.0,40,0.00,,,0.00,WeatherDisplay:10.37,2013-02-20 22:58:00,
2013-02-20 17:59:00,35.1,13.2,30.19,WSW,250,4.6,4.6,40,0.00,,,0.00,WeatherDisplay:10.37,2013-02-20 22:59:00,
2013-02-20 18:00:00,35.1,13.2,30.19,WSW,257,5.0,5.0,40,0.00,,,0.00,WeatherDisplay:10.37,2013-02-20 23:00:00,
2013-02-20 18:03:00,34.9,13.5,30.19,WSW,250,2.3,2.3,41,0.00,,,0.00,WeatherDisplay:10.37,2013-02-20 23:03:00,
2013-02-20 18:05:00,34.7,13.4,30.19,WSW,247,4.6,4.6,41,0.00,,,0.00,WeatherDisplay:10.37,2013-02-20 23:05:00,
2013-02-20 18:06:00,34.7,13.4,30.19,WSW,255,3.5,3.5,41,0.00,,,0.00,WeatherDisplay:10.37,2013-02-20 23:06:00,
2013-02-20 18:08:00,34.5,13.7,30.19,WSW,253,5.0,5.0,42,0.00,,,0.00,WeatherDisplay:10.37,2013-02-20 23:08:00,
2013-02-20 18:10:00,34.4,13.6,30.19,WSW,258,6.9,6.9,42,0.00,,,0.00,WeatherDisplay:10.37,2013-02-20 23:10:00,
2013-02-20 18:11:00,34.3,13.6,30.19,WSW,257,3.5,3.5,42,0.00,,,0.00,WeatherDisplay:10.37,2013-02-20 23:11:00,
2013-02-20 18:13:00,34.1,13.4,30.19,WSW,248,5.8,5.8,42,0.00,,,0.00,WeatherDisplay:10.37,2013-02-20 23:13:00,
2013-02-20 18:15:00,34.1,13.9,30.19,WSW,254,3.5,3.5,43,0.00,,,0.00,WeatherDisplay:10.37,2013-02-20 23:15:00,
2013-02-20 18:16:00,34.0,13.8,30.20,WNW,296,3.5,3.5,43,0.00,,,0.00,WeatherDisplay:10.37,2013-02-20 23:16:00,
2013-02-20 18:18:00,33.7,14.1,30.20,West,262,2.3,2.3,44,0.00,,,0.00,WeatherDisplay:10.37,2013-02-20 23:18:00,
2013-02-20 18:20:00,33.6,14.0,30.20,WNW,298,2.0,2.0,44,0.00,,,0.00,WeatherDisplay:10.37,2013-02-20 23:20:00,
2013-02-20 18:21:00,33.5,13.9,30.20,West,275,2.3,2.3,44,0.00,,,0.00,WeatherDisplay:10.37,2013-02-20 23:21:00,
2013-02-20 18:24:00,33.2,13.6,30.20,WSW,243,3.5,3.5,44,0.00,,,0.00,WeatherDisplay:10.37,2013-02-20 23:24:00,
2013-02-20 18:25:00,33.1,14.0,30.20,WNW,283,3.5,3.5,45,0.00,,,0.00,WeatherDisplay:10.37,2013-02-20 23:25:00,
2013-02-20 18:26:00,33.0,14.4,30.20,WNW,289,1.1,1.1,46,0.00,,,0.00,WeatherDisplay:10.37,2013-02-20 23:26:00,
2013-02-20 18:29:00,32.7,14.2,30.20,WNW,293,3.5,3.5,46,0.00,,,0.00,WeatherDisplay:10.37,2013-02-20 23:29:00,
2013-02-20 18:30:00,32.6,14.1,30.21,WNW,289,4.6,4.6,46,0.00,,,0.00,WeatherDisplay:10.37,2013-02-20 23:30:00,
2013-02-20 18:31:00,32.5,14.5,30.21,West,260,4.6,4.6,47,0.00,,,0.00,WeatherDisplay:10.37,2013-02-20 23:31:00,
2013-02-20 18:32:00,32.5,14.5,30.21,West,262,4.6,4.6,47,0.00,,,0.00,WeatherDisplay:10.37,2013-02-20 23:32:00,
2013-02-20 18:34:00,32.3,14.8,30.21,West,277,1.1,1.1,48,0.00,,,0.00,WeatherDisplay:10.37,2013-02-20 23:34:00,
2013-02-20 18:35:00,32.2,14.7,30.21,WNW,289,5.8,5.8,48,0.00,,,0.00,WeatherDisplay:10.37,2013-02-20 23:35:00,
2013-02-20 18:37:00,32.2,14.2,30.21,West,279,3.5,3.5,47,0.00,,,0.00,WeatherDisplay:10.37,2013-02-20 23:37:00,
2013-02-20 18:40:00,32.1,14.6,30.21,West,281,1.0,6.0,48,0.00,,,0.00,WeatherDisplay:10.37,2013-02-20 23:40:00,
2013-02-20 18:42:00,32.0,14.5,30.22,WSW,257,3.5,3.5,48,0.00,,,0.00,WeatherDisplay:10.37,2013-02-20 23:42:00,
2013-02-20 18:43:00,32.0,14.5,30.22,WSW,240,4.6,4.6,48,0.00,,,0.00,WeatherDisplay:10.37,2013-02-20 23:43:00,
2013-02-20 18:45:00,31.9,14.4,30.22,West,260,1.1,1.1,48,0.00,,,0.00,WeatherDisplay:10.37,2013-02-20 23:45:00,
2013-02-20 18:47:00,31.8,13.8,30.22,WNW,283,4.6,4.6,47,0.00,,,0.00,WeatherDisplay:10.37,2013-02-20 23:47:00,
2013-02-20 18:48:00,31.8,13.8,30.21,West,266,5.8,5.8,47,0.00,,,0.00,WeatherDisplay:10.37,2013-02-20 23:48:00,
2013-02-20 18:50:00,31.8,14.3,30.21,WSW,245,3.5,3.5,48,0.00,,,0.00,WeatherDisplay:10.37,2013-02-20 23:50:00,
2013-02-20 18:51:00,31.9,13.9,30.21,West,273,5.8,5.8,47,0.00,,,0.00,WeatherDisplay:10.37,2013-02-20 23:51:00,
2013-02-20 18:52:00,31.9,13.9,30.21,WSW,257,2.3,2.3,47,0.00,,,0.00,WeatherDisplay:10.37,2013-02-20 23:52:00,
2013-02-20 18:53:00,31.9,13.4,30.21,WNW,286,7.0,7.0,46,0.00,,,0.00,WeatherDisplay:10.37,2013-02-20 23:53:00,
2013-02-20 18:55:00,32.0,13.5,30.21,WSW,242,3.5,3.5,46,0.00,,,0.00,WeatherDisplay:10.37,2013-02-20 23:55:00,
2013-02-20 18:56:00,32.0,13.5,30.22,West,260,3.5,3.5,46,0.00,,,0.00,WeatherDisplay:10.37,2013-02-20 23:56:00,
2013-02-20 18:58:00,32.0,13.5,30.22,WSW,250,6.9,6.9,46,0.00,,,0.00,WeatherDisplay:10.37,2013-02-20 23:58:00,
2013-02-20 18:59:00,32.1,13.6,30.22,WNW,302,8.1,8.1,46,0.00,,,0.00,WeatherDisplay:10.37,2013-02-20 23:59:00,
2013-02-20 19:00:00,32.1,13.6,30.22,SW,235,3.5,3.5,46,0.00,,,0.00,WeatherDisplay:10.37,2013-02-21 00:00:00,
2013-02-20 19:02:00,32.1,13.6,30.22,West,281,2.3,2.3,46,0.00,,,0.00,WeatherDisplay:10.37,2013-02-21 00:02:00,
2013-02-20 19:03:00,32.1,13.6,30.22,West,269,2.3,2.3,46,0.00,CLR,,0.00,WeatherDisplay:10.37,2013-02-21 00:03:00,
2013-02-20 19:04:00,32.0,13.5,30.22,West,268,1.1,1.1,46,0.00,CLR,,0.00,WeatherDisplay:10.37,2013-02-21 00:04:00,
2013-02-20 19:05:00,32.0,13.5,30.22,NW,307,3.0,3.0,46,0.00,CLR,,0.00,WeatherDisplay:10.37,2013-02-21 00:05:00,
2013-02-20 19:07:00,31.9,13.4,30.22,WSW,254,2.3,2.3,46,0.00,CLR,,0.00,WeatherDisplay:10.37,2013-02-21 00:07:00,
2013-02-20 19:08:00,31.9,13.4,30.22,WNW,293,2.3,2.3,46,0.00,CLR,,0.00,WeatherDisplay:10.37,2013-02-21 00:08:00,
2013-02-20 19:09:00,31.8,13.3,30.22,West,279,3.5,3.5,46,0.00,CLR,,0.00,WeatherDisplay:10.37,2013-02-21 00:09:00,
2013-02-20 19:10:00,31.8,13.8,30.22,WSW,258,3.5,3.5,47,0.00,CLR,,0.00,WeatherDisplay:10.37,2013-02-21 00:10:00,
2013-02-20 19:12:00,31.7,13.7,30.22,West,263,2.3,2.3,47,0.00,CLR,,0.00,WeatherDisplay:10.37,2013-02-21 00:12:00,
2013-02-20 19:13:00,31.7,13.3,30.23,SW,232,3.5,3.5,46,0.00,CLR,,0.00,WeatherDisplay:10.37,2013-02-21 00:13:00,
2013-02-20 19:14:00,31.6,13.7,30.23,WSW,248,3.5,3.5,47,0.00,CLR,,0.00,WeatherDisplay:10.37,2013-02-21 00:14:00,
2013-02-20 19:15:00,31.6,13.7,30.23,WNW,288,2.0,2.0,47,0.00,CLR,,0.00,WeatherDisplay:10.37,2013-02-21 00:15:00,
2013-02-20 19:17:00,31.5,13.6,30.23,West,261,2.3,2.3,47,0.00,CLR,,0.00,WeatherDisplay:10.37,2013-02-21 00:17:00,
2013-02-20 19:19:00,31.4,13.9,30.23,West,275,2.3,2.3,48,0.00,CLR,,0.00,WeatherDisplay:10.37,2013-02-21 00:19:00,
2013-02-20 19:20:00,31.4,13.9,30.23,WNW,293,2.0,2.0,48,0.00,CLR,,0.00,WeatherDisplay:10.37,2013-02-21 00:20:00,
2013-02-20 19:22:00,31.3,13.9,30.23,West,262,1.1,1.1,48,0.00,CLR,,0.00,WeatherDisplay:10.37,2013-02-21 00:22:00,
2013-02-20 19:24:00,31.2,13.8,30.23,West,262,1.1,1.1,48,0.00,CLR,,0.00,WeatherDisplay:10.37,2013-02-21 00:24:00,
2013-02-20 19:26:00,31.1,13.7,30.23,West,266,1.1,1.1,48,0.00,CLR,,0.00,WeatherDisplay:10.37,2013-02-21 00:26:00,
2013-02-20 19:28:00,31.1,13.7,30.23,WNW,293,1.1,1.1,48,0.00,CLR,,0.00,WeatherDisplay:10.37,2013-02-21 00:28:00,
2013-02-20 19:29:00,31.0,13.6,30.23,WNW,293,1.1,0.0,48,0.00,CLR,,0.00,WeatherDisplay:10.37,2013-02-21 00:29:00,
2013-02-20 19:31:00,31.0,13.6,30.23,West,271,1.1,1.1,48,0.00,CLR,,0.00,WeatherDisplay:10.37,2013-02-21 00:31:00,
2013-02-20 19:33:00,31.0,14.0,30.23,West,271,1.1,1.1,49,0.00,CLR,,0.00,WeatherDisplay:10.37,2013-02-21 00:33:00,
2013-02-20 19:34:00,30.9,13.5,30.23,WNW,286,3.5,3.5,48,0.00,CLR,,0.00,WeatherDisplay:10.37,2013-02-21 00:34:00,
2013-02-20 19:35:00,30.9,13.5,30.23,WNW,286,2.3,2.3,48,0.00,CLR,,0.00,WeatherDisplay:10.37,2013-02-21 00:35:00,
2013-02-20 19:37:00,30.9,13.5,30.23,WNW,293,2.3,2.3,48,0.00,CLR,,0.00,WeatherDisplay:10.37,2013-02-21 00:37:00,
2013-02-20 19:38:00,31.0,13.6,30.23,WNW,293,2.3,2.3,48,0.00,CLR,,0.00,WeatherDisplay:10.37,2013-02-21 00:38:00,
2013-02-20 19:39:00,30.9,13.5,30.24,WNW,303,1.1,1.5,48,0.00,CLR,,0.00,WeatherDisplay:10.37,2013-02-21 00:39:00,
2013-02-20 19:40:00,31.0,13.6,30.24,WNW,303,3.5,3.5,48,0.00,CLR,,0.00,WeatherDisplay:10.37,2013-02-21 00:40:00,
2013-02-20 19:42:00,31.0,13.6,30.24,WNW,302,1.1,0.0,48,0.00,CLR,,0.00,WeatherDisplay:10.37,2013-02-21 00:42:00,
2013-02-20 19:44:00,31.0,14.0,30.24,WNW,302,1.1,0.0,49,0.00,CLR,,0.00,WeatherDisplay:10.37,2013-02-21 00:44:00,
2013-02-20 19:45:00,30.9,14.0,30.24,West,281,1.1,1.1,49,0.00,CLR,,0.00,WeatherDisplay:10.37,2013-02-21 00:45:00,
2013-02-20 19:47:00,30.9,13.5,30.23,West,276,2.3,2.3,48,0.00,CLR,,0.00,WeatherDisplay:10.37,2013-02-21 00:47:00,
2013-02-20 19:49:00,30.9,14.0,30.24,WNW,291,0.0,0.0,49,0.00,CLR,,0.00,WeatherDisplay:10.37,2013-02-21 00:49:00,
2013-02-20 19:50:00,30.8,13.9,30.24,WNW,291,1.1,1.1,49,0.00,CLR,,0.00,WeatherDisplay:10.37,2013-02-21 00:50:00,
2013-02-20 19:52:00,30.7,13.8,30.23,WNW,301,1.1,1.1,49,0.00,CLR,,0.00,WeatherDisplay:10.37,2013-02-21 00:52:00,
2013-02-20 19:54:00,30.6,13.7,30.23,WSW,252,2.0,2.0,49,0.00,CLR,,0.00,WeatherDisplay:10.37,2013-02-21 00:54:00,
2013-02-20 19:55:00,30.6,13.7,30.23,WNW,303,2.3,2.3,49,0.00,CLR,,0.00,WeatherDisplay:10.37,2013-02-21 00:55:00,
2013-02-20 19:57:00,30.6,13.7,30.23,WNW,299,2.3,2.3,49,0.00,CLR,,0.00,WeatherDisplay:10.37,2013-02-21 00:57:00,
2013-02-20 19:59:00,30.6,14.1,30.23,WNW,299,1.1,0.0,50,0.00,CLR,,0.00,WeatherDisplay:10.37,2013-02-21 00:59:00,
2013-02-20 20:00:00,30.5,14.0,30.23,WNW,299,1.1,1.1,50,0.00,CLR,,0.00,WeatherDisplay:10.37,2013-02-21 01:00:00,
2013-02-20 20:01:00,30.5,14.5,30.23,WNW,299,1.1,1.1,51,0.00,CLR,,0.00,WeatherDisplay:10.37,2013-02-21 01:01:00,
2013-02-20 20:03:00,30.4,14.4,30.24,WNW,300,1.1,0.0,51,0.00,CLR,,0.00,WeatherDisplay:10.37,2013-02-21 01:03:00,
2013-02-20 20:04:00,30.3,14.3,30.23,WNW,295,3.5,3.5,51,0.00,CLR,,0.00,WeatherDisplay:10.37,2013-02-21 01:04:00,
2013-02-20 20:05:00,30.2,14.2,30.24,West,273,3.5,3.5,51,0.00,CLR,,0.00,WeatherDisplay:10.37,2013-02-21 01:05:00,
2013-02-20 20:06:00,30.2,14.2,30.24,WSW,257,2.3,2.3,51,0.00,CLR,,0.00,WeatherDisplay:10.37,2013-02-21 01:06:00,
2013-02-20 20:08:00,30.1,14.1,30.24,West,260,2.3,2.3,51,0.00,CLR,,0.00,WeatherDisplay:10.37,2013-02-21 01:08:00,
2013-02-20 20:09:00,30.1,14.1,30.24,West,260,1.1,1.1,51,0.00,CLR,,0.00,WeatherDisplay:10.37,2013-02-21 01:09:00,
2013-02-20 20:11:00,30.0,14.0,30.24,WSW,254,2.3,2.3,51,0.00,CLR,,0.00,WeatherDisplay:10.37,2013-02-21 01:11:00,
2013-02-20 20:13:00,29.9,13.9,30.24,NW,304,3.5,3.5,51,0.00,CLR,,0.00,WeatherDisplay:10.37,2013-02-21 01:13:00,
2013-02-20 20:14:00,29.8,14.3,30.24,WNW,296,2.3,2.3,52,0.00,CLR,,0.00,WeatherDisplay:10.37,2013-02-21 01:14:00,
2013-02-20 20:16:00,29.7,13.8,30.24,West,269,1.1,1.1,51,0.00,CLR,,0.00,WeatherDisplay:10.37,2013-02-21 01:16:00,
2013-02-20 20:18:00,29.6,13.7,30.24,WNW,286,3.5,3.5,51,0.00,CLR,,0.00,WeatherDisplay:10.37,2013-02-21 01:18:00,
2013-02-20 20:19:00,29.6,13.7,30.24,WNW,286,3.5,3.5,51,0.00,CLR,,0.00,WeatherDisplay:10.37,2013-02-21 01:19:00,
2013-02-20 20:21:00,29.6,13.7,30.24,WSW,252,3.5,3.5,51,0.00,CLR,,0.00,WeatherDisplay:10.37,2013-02-21 01:21:00,
2013-02-20 20:23:00,29.6,14.1,30.24,WSW,252,2.3,0.0,52,0.00,CLR,,0.00,WeatherDisplay:10.37,2013-02-21 01:23:00,
2013-02-20 20:24:00,29.5,14.0,30.24,WSW,241,1.1,1.1,52,0.00,CLR,,0.00,WeatherDisplay:10.37,2013-02-21 01:24:00,
2013-02-20 20:26:00,29.4,13.9,30.24,WSW,257,2.3,2.3,52,0.00,CLR,,0.00,WeatherDisplay:10.37,2013-02-21 01:26:00,
2013-02-20 20:28:00,29.3,13.4,30.24,West,262,3.5,3.5,51,0.00,CLR,,0.00,WeatherDisplay:10.37,2013-02-21 01:28:00,
2013-02-20 20:29:00,29.3,13.4,30.24,West,260,2.3,2.3,51,0.00,CLR,,0.00,WeatherDisplay:10.37,2013-02-21 01:29:00,
2013-02-20 20:31:00,29.3,13.4,30.24,West,264,1.1,1.1,51,0.00,CLR,,0.00,WeatherDisplay:10.37,2013-02-21 01:31:00,
2013-02-20 20:34:00,29.2,13.7,30.23,WNW,288,1.1,0.0,52,0.00,CLR,,0.00,WeatherDisplay:10.37,2013-02-21 01:34:00,
2013-02-20 20:36:00,29.1,13.2,30.23,WNW,283,1.1,1.1,51,0.00,CLR,,0.00,WeatherDisplay:10.37,2013-02-21 01:36:00,
2013-02-20 20:37:00,29.1,13.2,30.23,WNW,283,3.5,3.5,51,0.00,CLR,,0.00,WeatherDisplay:10.37,2013-02-21 01:37:00,
2013-02-20 20:39:00,29.0,13.6,30.23,WNW,286,2.0,2.0,52,0.00,CLR,,0.00,WeatherDisplay:10.37,2013-02-21 01:39:00,
2013-02-20 20:40:00,29.0,13.6,30.23,WSW,258,2.3,2.3,52,0.00,CLR,,0.00,WeatherDisplay:10.37,2013-02-21 01:40:00,
2013-02-20 20:41:00,28.9,13.0,30.24,WNW,293,3.0,3.0,51,0.00,CLR,,0.00,WeatherDisplay:10.37,2013-02-21 01:41:00,
2013-02-20 20:42:00,28.9,13.0,30.24,WNW,290,5.0,5.0,51,0.00,CLR,,0.00,WeatherDisplay:10.37,2013-02-21 01:42:00,
2013-02-20 20:44:00,28.9,12.6,30.24,West,267,2.0,2.0,50,0.00,CLR,,0.00,WeatherDisplay:10.37,2013-02-21 01:44:00,
2013-02-20 20:45:00,28.9,12.6,30.24,SW,225,4.6,4.6,50,0.00,CLR,,0.00,WeatherDisplay:10.37,2013-02-21 01:45:00,
2013-02-20 20:47:00,28.9,13.0,30.23,WSW,246,2.3,2.3,51,0.00,CLR,,0.00,WeatherDisplay:10.37,2013-02-21 01:47:00,
2013-02-20 20:50:00,28.9,12.5,30.23,WSW,253,2.0,4.0,50,0.00,CLR,,0.00,WeatherDisplay:10.37,2013-02-21 01:50:00,
2013-02-20 20:52:00,28.9,12.6,30.23,WSW,243,3.5,3.5,50,0.00,CLR,,0.00,WeatherDisplay:10.37,2013-02-21 01:52:00,
2013-02-20 20:55:00,28.9,12.6,30.24,WSW,250,3.5,3.5,50,0.00,CLR,,0.00,WeatherDisplay:10.37,2013-02-21 01:55:00,
2013-02-20 20:57:00,28.8,12.9,30.23,WSW,255,3.5,3.5,51,0.00,CLR,,0.00,WeatherDisplay:10.37,2013-02-21 01:57:00,
2013-02-20 20:58:00,28.8,12.9,30.23,West,263,3.5,3.5,51,0.00,CLR,,0.00,WeatherDisplay:10.37,2013-02-21 01:58:00,
2013-02-20 21:00:00,28.7,12.8,30.23,West,264,2.3,2.3,51,0.00,CLR,,0.00,WeatherDisplay:10.37,2013-02-21 02:00:00,
2013-02-20 21:01:00,28.7,12.8,30.23,West,264,2.3,2.3,51,0.00,CLR,,0.00,WeatherDisplay:10.37,2013-02-21 02:01:00,
2013-02-20 21:03:00,28.6,12.7,30.23,West,260,1.1,1.1,51,0.00,CLR,,0.00,WeatherDisplay:10.37,2013-02-21 02:03:00,
2013-02-20 21:05:00,28.5,13.1,30.24,West,260,1.1,1.1,52,0.00,CLR,,0.00,WeatherDisplay:10.37,2013-02-21 02:05:00,
2013-02-20 21:06:00,28.5,13.1,30.24,West,260,2.3,2.3,52,0.00,CLR,,0.00,WeatherDisplay:10.37,2013-02-21 02:06:00,
2013-02-20 21:08:00,28.4,13.0,30.24,West,260,0.0,0.0,52,0.00,CLR,,0.00,WeatherDisplay:10.37,2013-02-21 02:08:00,
2013-02-20 21:11:00,28.1,13.6,30.24,West,260,0.0,0.0,54,0.00,CLR,,0.00,WeatherDisplay:10.37,2013-02-21 02:11:00,
2013-02-20 21:13:00,27.9,13.4,30.24,West,260,0.0,0.0,54,0.00,CLR,,0.00,WeatherDisplay:10.37,2013-02-21 02:13:00,
2013-02-20 21:14:00,27.8,13.3,30.24,West,260,0.0,0.0,54,0.00,CLR,,0.00,WeatherDisplay:10.37,2013-02-21 02:14:00,
2013-02-20 21:16:00,27.5,13.0,30.24,West,260,0.0,0.0,54,0.00,CLR,,0.00,WeatherDisplay:10.37,2013-02-21 02:16:00,
2013-02-20 21:18:00,27.2,13.6,30.24,West,260,0.0,0.0,56,0.00,CLR,,0.00,WeatherDisplay:10.37,2013-02-21 02:18:00,
2013-02-20 21:19:00,27.1,13.5,30.24,West,260,0.0,0.0,56,0.00,CLR,,0.00,WeatherDisplay:10.37,2013-02-21 02:19:00,
2013-02-20 21:21:00,27.0,13.8,30.24,West,260,1.1,1.1,57,0.00,CLR,,0.00,WeatherDisplay:10.37,2013-02-21 02:21:00,
2013-02-20 21:23:00,26.9,13.3,30.24,West,260,1.1,1.1,56,0.00,CLR,,0.00,WeatherDisplay:10.37,2013-02-21 02:23:00,
2013-02-20 21:24:00,26.9,13.3,30.24,West,260,1.1,0.0,56,0.00,CLR,,0.00,WeatherDisplay:10.37,2013-02-21 02:24:00,
2013-02-20 21:26:00,26.7,13.1,30.24,West,260,1.0,0.0,56,0.00,CLR,,0.00,WeatherDisplay:10.37,2013-02-21 02:26:00,
2013-02-20 21:27:00,26.7,13.5,30.25,West,260,1.1,0.0,57,0.00,CLR,,0.00,WeatherDisplay:10.37,2013-02-21 02:27:00,
2013-02-20 21:28:00,26.6,13.8,30.25,West,260,0.0,0.0,58,0.00,CLR,,0.00,WeatherDisplay:10.37,2013-02-21 02:28:00,
2013-02-20 21:29:00,26.6,13.8,30.25,West,260,0.0,0.0,58,0.00,CLR,,0.00,WeatherDisplay:10.37,2013-02-21 02:29:00,
2013-02-20 21:32:00,26.5,14.1,30.25,West,260,0.0,0.0,59,0.00,CLR,,0.00,WeatherDisplay:10.37,2013-02-21 02:32:00,
2013-02-20 21:33:00,26.4,13.6,30.25,West,260,1.1,1.1,58,0.00,CLR,,0.00,WeatherDisplay:10.37,2013-02-21 02:33:00,
2013-02-20 21:34:00,26.4,13.6,30.25,West,260,0.0,0.0,58,0.00,CLR,,0.00,WeatherDisplay:10.37,2013-02-21 02:34:00,
2013-02-20 21:37:00,26.4,13.6,30.24,West,260,0.0,0.0,58,0.00,CLR,,0.00,WeatherDisplay:10.37,2013-02-21 02:37:00,
2013-02-20 21:38:00,26.3,13.5,30.25,West,260,0.0,0.0,58,0.00,CLR,,0.00,WeatherDisplay:10.37,2013-02-21 02:38:00,
2013-02-20 21:39:00,26.4,13.6,30.25,WSW,250,1.1,1.1,58,0.00,CLR,,0.00,WeatherDisplay:10.37,2013-02-21 02:39:00,
2013-02-20 21:42:00,26.5,13.3,30.25,WSW,252,0.0,0.0,57,0.00,CLR,,0.00,WeatherDisplay:10.37,2013-02-21 02:42:00,
2013-02-20 21:43:00,26.5,13.7,30.24,WSW,251,0.0,0.0,58,0.00,CLR,,0.00,WeatherDisplay:10.37,2013-02-21 02:43:00,
2013-02-20 21:44:00,26.4,13.6,30.24,WSW,251,0.0,0.0,58,0.00,CLR,,0.00,WeatherDisplay:10.37,2013-02-21 02:44:00,
2013-02-20 21:47:00,26.2,13.4,30.24,WSW,252,1.1,1.1,58,0.00,CLR,,0.00,WeatherDisplay:10.37,2013-02-21 02:47:00,
2013-02-20 21:48:00,26.1,13.3,30.24,WSW,252,1.1,0.0,58,0.00,CLR,,0.00,WeatherDisplay:10.37,2013-02-21 02:48:00,
2013-02-20 21:49:00,26.1,13.7,30.24,WSW,251,0.0,0.0,59,0.00,CLR,,0.00,WeatherDisplay:10.37,2013-02-21 02:49:00,
2013-02-20 21:50:00,26.1,13.7,30.24,WSW,251,0.0,0.0,59,0.00,CLR,,0.00,WeatherDisplay:10.37,2013-02-21 02:50:00,
2013-02-20 21:52:00,26.0,13.2,30.24,WSW,251,1.1,1.1,58,0.00,CLR,,0.00,WeatherDisplay:10.37,2013-02-21 02:52:00,
2013-02-20 21:53:00,26.0,13.6,30.24,WSW,251,0.0,0.0,59,0.00,CLR,,0.00,WeatherDisplay:10.37,2013-02-21 02:53:00,
2013-02-20 21:54:00,25.9,13.5,30.24,WSW,251,0.0,0.0,59,0.00,CLR,,0.00,WeatherDisplay:10.37,2013-02-21 02:54:00,
2013-02-20 21:55:00,25.9,13.5,30.24,WSW,251,0.0,0.0,59,0.00,CLR,,0.00,WeatherDisplay:10.37,2013-02-21 02:55:00,
2013-02-20 21:57:00,25.7,13.7,30.24,WSW,251,0.0,0.0,60,0.00,CLR,,0.00,WeatherDisplay:10.37,2013-02-21 02:57:00,
2013-02-20 21:58:00,25.6,13.6,30.24,WSW,252,0.0,0.0,60,0.00,CLR,,0.00,WeatherDisplay:10.37,2013-02-21 02:58:00,
2013-02-20 22:00:00,25.5,13.6,30.24,WSW,251,0.0,0.0,60,0.00,CLR,,0.00,WeatherDisplay:10.37,2013-02-21 03:00:00,
2013-02-20 22:02:00,25.3,13.7,30.24,WSW,252,0.0,0.0,61,0.00,CLR,,0.00,WeatherDisplay:10.37,2013-02-21 03:02:00,
2013-02-20 22:03:00,25.3,13.7,30.24,WSW,252,0.0,0.0,61,0.00,,,0.00,WeatherDisplay:10.37,2013-02-21 03:03:00,
2013-02-20 22:05:00,25.1,13.9,30.24,WSW,251,1.1,0.0,62,0.00,,,0.00,WeatherDisplay:10.37,2013-02-21 03:05:00,
2013-02-20 22:08:00,24.9,14.4,30.24,WSW,252,1.1,1.1,64,0.00,,,0.00,WeatherDisplay:10.37,2013-02-21 03:08:00,
2013-02-20 22:09:00,24.8,14.3,30.24,WSW,251,1.1,1.1,64,0.00,,,0.00,WeatherDisplay:10.37,2013-02-21 03:09:00,
2013-02-20 22:10:00,24.6,14.5,30.24,WSW,252,1.1,0.0,65,0.00,,,0.00,WeatherDisplay:10.37,2013-02-21 03:10:00,
2013-02-20 22:13:00,24.4,14.7,30.24,WSW,251,0.0,0.0,66,0.00,,,0.00,WeatherDisplay:10.37,2013-02-21 03:13:00,
2013-02-20 22:14:00,24.3,14.6,30.24,WSW,251,0.0,0.0,66,0.00,,,0.00,WeatherDisplay:10.37,2013-02-21 03:14:00,
2013-02-20 22:15:00,24.1,14.4,30.24,WSW,251,0.0,0.0,66,0.00,,,0.00,WeatherDisplay:10.37,2013-02-21 03:15:00,
2013-02-20 22:18:00,23.8,14.1,30.24,WSW,252,0.0,0.0,66,0.00,,,0.00,WeatherDisplay:10.37,2013-02-21 03:18:00,
2013-02-20 22:19:00,23.7,14.3,30.24,WSW,252,0.0,0.0,67,0.00,,,0.00,WeatherDisplay:10.37,2013-02-21 03:19:00,
2013-02-20 22:20:00,23.6,14.6,30.24,WSW,251,0.0,0.1,68,0.00,,,0.00,WeatherDisplay:10.37,2013-02-21 03:20:00,
2013-02-20 22:23:00,23.3,14.6,30.24,WSW,252,0.0,0.0,69,0.00,,,0.00,WeatherDisplay:10.37,2013-02-21 03:23:00,
2013-02-20 22:24:00,23.2,14.5,30.24,WSW,252,1.1,0.0,69,0.00,,,0.00,WeatherDisplay:10.37,2013-02-21 03:24:00,
2013-02-20 22:25:00,23.2,14.5,30.24,WSW,252,0.0,0.0,69,0.00,,,0.00,WeatherDisplay:10.37,2013-02-21 03:25:00,
2013-02-20 22:29:00,22.9,14.6,30.25,WSW,252,0.0,0.0,70,0.00,,,0.00,WeatherDisplay:10.37,2013-02-21 03:29:00,
2013-02-20 22:30:00,22.9,14.9,30.25,WSW,251,0.0,0.0,71,0.00,,,0.00,WeatherDisplay:10.37,2013-02-21 03:30:00,
2013-02-20 22:31:00,22.9,14.9,30.25,WSW,251,0.0,0.0,71,0.00,,,0.00,WeatherDisplay:10.37,2013-02-21 03:31:00,
2013-02-20 22:34:00,22.7,14.7,30.25,WSW,251,0.0,0.0,71,0.00,,,0.00,WeatherDisplay:10.37,2013-02-21 03:34:00,
2013-02-20 22:35:00,22.7,14.7,30.25,WSW,252,0.0,0.0,71,0.00,,,0.00,WeatherDisplay:10.37,2013-02-21 03:35:00,
2013-02-20 22:36:00,22.6,14.6,30.25,WSW,252,0.0,0.0,71,0.00,,,0.00,WeatherDisplay:10.37,2013-02-21 03:36:00,
2013-02-20 22:39:00,22.4,14.7,30.25,WSW,251,0.0,0.0,72,0.00,,,0.00,WeatherDisplay:10.37,2013-02-21 03:39:00,
2013-02-20 22:40:00,22.3,14.6,30.25,WSW,252,0.0,0.0,72,0.00,,,0.00,WeatherDisplay:10.37,2013-02-21 03:40:00,
2013-02-20 22:41:00,22.3,14.6,30.25,WSW,251,0.0,0.0,72,0.00,,,0.00,WeatherDisplay:10.37,2013-02-21 03:41:00,
2013-02-20 22:44:00,22.1,14.4,30.24,WSW,251,0.0,0.0,72,0.00,,,0.00,WeatherDisplay:10.37,2013-02-21 03:44:00,
2013-02-20 22:45:00,22.1,14.8,30.24,WSW,251,0.0,0.0,73,0.00,,,0.00,WeatherDisplay:10.37,2013-02-21 03:45:00,
2013-02-20 22:46:00,22.1,14.8,30.24,WSW,251,0.0,0.0,73,0.00,,,0.00,WeatherDisplay:10.37,2013-02-21 03:46:00,
2013-02-20 22:47:00,22.0,14.3,30.24,WSW,252,0.0,0.0,72,0.00,,,0.00,WeatherDisplay:10.37,2013-02-21 03:47:00,
2013-02-20 22:50:00,21.9,14.3,30.24,WSW,252,1.1,1.1,72,0.00,,,0.00,WeatherDisplay:10.37,2013-02-21 03:50:00,
2013-02-20 22:51:00,21.9,14.3,30.24,WSW,252,1.1,0.0,72,0.00,,,0.00,WeatherDisplay:10.37,2013-02-21 03:51:00,
2013-02-20 22:53:00,21.9,14.3,30.24,WSW,251,0.0,0.0,72,0.00,,,0.00,WeatherDisplay:10.37,2013-02-21 03:53:00,
2013-02-20 22:55:00,21.8,14.2,30.25,WSW,252,0.0,0.0,72,0.00,,,0.00,WeatherDisplay:10.37,2013-02-21 03:55:00,
2013-02-20 22:56:00,21.7,14.1,30.25,WSW,251,0.0,0.0,72,0.00,,,0.00,WeatherDisplay:10.37,2013-02-21 03:56:00,
2013-02-20 22:58:00,21.6,14.3,30.25,WSW,251,0.0,0.0,73,0.00,,,0.00,WeatherDisplay:10.37,2013-02-21 03:58:00,
2013-02-20 23:00:00,21.4,14.4,30.25,WSW,251,0.0,0.0,74,0.00,,,0.00,WeatherDisplay:10.37,2013-02-21 04:00:00,
2013-02-20 23:01:00,21.3,14.3,30.24,WSW,252,0.0,0.0,74,0.00,,,0.00,WeatherDisplay:10.37,2013-02-21 04:01:00,
2013-02-20 23:03:00,21.2,14.2,30.24,WSW,251,1.1,0.0,74,0.00,,,0.00,WeatherDisplay:10.37,2013-02-21 04:03:00,
2013-02-20 23:05:00,21.1,14.1,30.24,WSW,251,1.1,0.0,74,0.00,,,0.00,WeatherDisplay:10.37,2013-02-21 04:05:00,
2013-02-20 23:06:00,21.1,14.1,30.24,WSW,251,1.1,1.1,74,0.00,,,0.00,WeatherDisplay:10.37,2013-02-21 04:06:00,
2013-02-20 23:09:00,21.1,14.1,30.25,WSW,252,0.0,0.0,74,0.00,,,0.00,WeatherDisplay:10.37,2013-02-21 04:09:00,
2013-02-20 23:10:00,21.1,14.1,30.25,WSW,251,0.0,0.0,74,0.00,,,0.00,WeatherDisplay:10.37,2013-02-21 04:10:00,
2013-02-20 23:11:00,21.0,14.3,30.24,WSW,251,0.0,0.0,75,0.00,,,0.00,WeatherDisplay:10.37,2013-02-21 04:11:00,
2013-02-20 23:14:00,20.8,14.1,30.24,WSW,252,0.0,0.0,75,0.00,,,0.00,WeatherDisplay:10.37,2013-02-21 04:14:00,
2013-02-20 23:15:00,20.7,14.0,30.24,WSW,251,0.0,0.0,75,0.00,,,0.00,WeatherDisplay:10.37,2013-02-21 04:15:00,
2013-02-20 23:16:00,20.6,13.9,30.25,WSW,251,0.0,0.0,75,0.00,,,0.00,WeatherDisplay:10.37,2013-02-21 04:16:00,
2013-02-20 23:19:00,20.4,14.0,30.24,WSW,252,0.0,0.0,76,0.00,,,0.00,WeatherDisplay:10.37,2013-02-21 04:19:00,
2013-02-20 23:20:00,20.5,14.1,30.24,WSW,252,0.0,0.0,76,0.00,,,0.00,WeatherDisplay:10.37,2013-02-21 04:20:00,
2013-02-20 23:21:00,20.5,14.4,30.24,WSW,252,0.0,0.0,77,0.00,,,0.00,WeatherDisplay:10.37,2013-02-21 04:21:00,
2013-02-20 23:22:00,20.5,14.4,30.24,WSW,252,0.0,0.0,77,0.00,,,0.00,WeatherDisplay:10.37,2013-02-21 04:22:00,
2013-02-20 23:24:00,20.5,14.4,30.24,WSW,251,0.0,0.0,77,0.00,,,0.00,WeatherDisplay:10.37,2013-02-21 04:24:00,
2013-02-20 23:26:00,20.5,14.4,30.24,WSW,252,0.0,0.0,77,0.00,,,0.00,WeatherDisplay:10.37,2013-02-21 04:26:00,
2013-02-20 23:27:00,20.5,14.4,30.24,WSW,252,0.0,0.0,77,0.00,,,0.00,WeatherDisplay:10.37,2013-02-21 04:27:00,
2013-02-20 23:29:00,20.5,14.4,30.24,WSW,252,1.1,1.1,77,0.00,,,0.00,WeatherDisplay:10.37,2013-02-21 04:29:00,
2013-02-20 23:31:00,20.4,14.3,30.24,WSW,252,0.0,0.0,77,0.00,,,0.00,WeatherDisplay:10.37,2013-02-21 04:31:00,
2013-02-20 23:32:00,20.3,14.2,30.24,WSW,251,0.0,0.0,77,0.00,,,0.00,WeatherDisplay:10.37,2013-02-21 04:32:00,
2013-02-20 23:34:00,20.1,14.0,30.24,WSW,251,0.0,0.0,77,0.00,,,0.00,WeatherDisplay:10.37,2013-02-21 04:34:00,
2013-02-20 23:37:00,20.0,13.9,30.24,WSW,251,0.0,0.0,77,0.00,,,0.00,WeatherDisplay:10.37,2013-02-21 04:37:00,
2013-02-20 23:40:00,19.9,13.9,30.24,WSW,251,1.1,1.1,77,0.00,,,0.00,WeatherDisplay:10.37,2013-02-21 04:40:00,
2013-02-20 23:42:00,19.9,13.9,30.24,WSW,251,1.1,0.0,77,0.00,,,0.00,WeatherDisplay:10.37,2013-02-21 04:42:00,
2013-02-20 23:45:00,19.9,13.9,30.24,WSW,252,0.0,0.0,77,0.00,,,0.00,WeatherDisplay:10.37,2013-02-21 04:45:00,
2013-02-20 23:47:00,19.8,13.8,30.24,WSW,252,0.0,0.0,77,0.00,,,0.00,WeatherDisplay:10.37,2013-02-21 04:47:00,
2013-02-20 23:48:00,19.8,13.8,30.24,WSW,251,0.0,0.0,77,0.00,,,0.00,WeatherDisplay:10.37,2013-02-21 04:48:00,
2013-02-20 23:51:00,19.7,14.0,30.24,WSW,252,0.0,0.0,78,0.00,,,0.00,WeatherDisplay:10.37,2013-02-21 04:51:00,
2013-02-20 23:53:00,19.7,14.0,30.24,WSW,251,0.0,0.0,78,0.00,,,0.00,WeatherDisplay:10.37,2013-02-21 04:53:00,
2013-02-20 23:56:00,19.6,13.6,30.25,WSW,251,0.0,0.0,77,0.00,,,0.00,WeatherDisplay:10.37,2013-02-21 04:56:00,
2013-02-20 23:58:00,19.5,13.8,30.25,WSW,251,0.0,0.0,78,0.00,,,0.00,WeatherDisplay:10.37,2013-02-21 04:58:00,